<?xml version="1.0" encoding="utf-8"?>
<gpx xmlns:xsi="http://www.w3.org/2001/XMLSchema-instance" xmlns:xsd="http://www.w3.org/2001/XMLSchema" version="1.1" creator="Shapelink.com" xmlns="http://www.topografix.com/GPX/1/1" xmlns:gpxtpx="http://www.garmin.com/xmlschemas/TrackPointExtension/v1">
  <metadata>
    <name>Längdskidåkning 10.57 km, 2011-12-09</name>
    <desc></desc>
    <author><name>Andreas Östlund</name></author> 
    <time>1970-01-01T01:00:00Z</time>
  </metadata>
  <trk>
    <name>Längdskidåkning 10.57 km, 2011-12-09</name>
    <trkseg>
      <trkpt lat="61.306119" lon="12.242895">
        <ele>441.143</ele>
        <time>1970-01-01T01:00:00Z</time>
      </trkpt>
      <trkpt lat="61.306026" lon="12.242971">
        <ele>441.25</ele>
        <time>1970-01-01T01:00:00Z</time>
      </trkpt>
      <trkpt lat="61.305929" lon="12.243007">
        <ele>441.333</ele>
        <time>1970-01-01T01:00:00Z</time>
      </trkpt>
      <trkpt lat="61.305827" lon="12.242968">
        <ele>441.8</ele>
        <time>1970-01-01T01:00:00Z</time>
      </trkpt>
      <trkpt lat="61.305755" lon="12.242844">
        <ele>442.182</ele>
        <time>1970-01-01T01:00:00Z</time>
      </trkpt>
      <trkpt lat="61.305679" lon="12.242653">
        <ele>442.545</ele>
        <time>1970-01-01T01:00:00Z</time>
      </trkpt>
      <trkpt lat="61.305596" lon="12.24258">
        <ele>442.909</ele>
        <time>1970-01-01T01:00:00Z</time>
      </trkpt>
      <trkpt lat="61.30548" lon="12.242579">
        <ele>443.455</ele>
        <time>1970-01-01T01:00:00Z</time>
      </trkpt>
      <trkpt lat="61.30539" lon="12.242599">
        <ele>444</ele>
        <time>1970-01-01T01:00:00Z</time>
      </trkpt>
      <trkpt lat="61.305298" lon="12.242593">
        <ele>444.545</ele>
        <time>1970-01-01T01:00:00Z</time>
      </trkpt>
      <trkpt lat="61.3052" lon="12.242606">
        <ele>445.273</ele>
        <time>1970-01-01T01:00:00Z</time>
      </trkpt>
      <trkpt lat="61.305099" lon="12.242532">
        <ele>446</ele>
        <time>1970-01-01T01:00:00Z</time>
      </trkpt>
      <trkpt lat="61.305015" lon="12.242442">
        <ele>446.727</ele>
        <time>1970-01-01T01:00:00Z</time>
      </trkpt>
      <trkpt lat="61.304987" lon="12.242247">
        <ele>447.727</ele>
        <time>1970-01-01T01:00:00Z</time>
      </trkpt>
      <trkpt lat="61.304891" lon="12.24216">
        <ele>448.364</ele>
        <time>1970-01-01T01:00:00Z</time>
      </trkpt>
      <trkpt lat="61.3048" lon="12.242128">
        <ele>448.727</ele>
        <time>1970-01-01T01:00:00Z</time>
      </trkpt>
      <trkpt lat="61.304733" lon="12.241983">
        <ele>449.091</ele>
        <time>1970-01-01T01:00:00Z</time>
      </trkpt>
      <trkpt lat="61.304642" lon="12.241983">
        <ele>449.455</ele>
        <time>1970-01-01T01:00:00Z</time>
      </trkpt>
      <trkpt lat="61.304539" lon="12.24198">
        <ele>449.818</ele>
        <time>1970-01-01T01:00:00Z</time>
      </trkpt>
      <trkpt lat="61.304458" lon="12.242122">
        <ele>450.182</ele>
        <time>1970-01-01T01:00:00Z</time>
      </trkpt>
      <trkpt lat="61.304385" lon="12.242265">
        <ele>450.545</ele>
        <time>1970-01-01T01:00:00Z</time>
      </trkpt>
      <trkpt lat="61.304321" lon="12.242417">
        <ele>450.545</ele>
        <time>1970-01-01T01:00:00Z</time>
      </trkpt>
      <trkpt lat="61.304236" lon="12.242517">
        <ele>450.727</ele>
        <time>1970-01-01T01:00:00Z</time>
      </trkpt>
      <trkpt lat="61.304149" lon="12.242583">
        <ele>450.909</ele>
        <time>1970-01-01T01:00:00Z</time>
      </trkpt>
      <trkpt lat="61.304062" lon="12.242654">
        <ele>450.818</ele>
        <time>1970-01-01T01:00:00Z</time>
      </trkpt>
      <trkpt lat="61.303966" lon="12.242719">
        <ele>450.727</ele>
        <time>1970-01-01T01:00:00Z</time>
      </trkpt>
      <trkpt lat="61.303875" lon="12.242737">
        <ele>450.909</ele>
        <time>1970-01-01T01:00:00Z</time>
      </trkpt>
      <trkpt lat="61.303774" lon="12.242745">
        <ele>451.091</ele>
        <time>1970-01-01T01:00:00Z</time>
      </trkpt>
      <trkpt lat="61.30368" lon="12.242794">
        <ele>451.273</ele>
        <time>1970-01-01T01:00:00Z</time>
      </trkpt>
      <trkpt lat="61.303587" lon="12.242756">
        <ele>451.455</ele>
        <time>1970-01-01T01:00:00Z</time>
      </trkpt>
      <trkpt lat="61.303525" lon="12.242608">
        <ele>451.636</ele>
        <time>1970-01-01T01:00:00Z</time>
      </trkpt>
      <trkpt lat="61.303465" lon="12.24275">
        <ele>451.818</ele>
        <time>1970-01-01T01:00:00Z</time>
      </trkpt>
      <trkpt lat="61.303489" lon="12.242556">
        <ele>452</ele>
        <time>1970-01-01T01:00:00Z</time>
      </trkpt>
      <trkpt lat="61.303393" lon="12.24252">
        <ele>452</ele>
        <time>1970-01-01T01:00:00Z</time>
      </trkpt>
      <trkpt lat="61.303462" lon="12.242653">
        <ele>452</ele>
        <time>1970-01-01T01:00:00Z</time>
      </trkpt>
      <trkpt lat="61.303548" lon="12.242735">
        <ele>452</ele>
        <time>1970-01-01T01:00:00Z</time>
      </trkpt>
      <trkpt lat="61.303457" lon="12.242659">
        <ele>451.545</ele>
        <time>1970-01-01T01:00:00Z</time>
      </trkpt>
      <trkpt lat="61.303555" lon="12.24266">
        <ele>451.091</ele>
        <time>1970-01-01T01:00:00Z</time>
      </trkpt>
      <trkpt lat="61.303641" lon="12.242582">
        <ele>450.636</ele>
        <time>1970-01-01T01:00:00Z</time>
      </trkpt>
      <trkpt lat="61.303567" lon="12.24271">
        <ele>450.182</ele>
        <time>1970-01-01T01:00:00Z</time>
      </trkpt>
      <trkpt lat="61.303498" lon="12.24286">
        <ele>449.727</ele>
        <time>1970-01-01T01:00:00Z</time>
      </trkpt>
      <trkpt lat="61.303404" lon="12.242961">
        <ele>449.273</ele>
        <time>1970-01-01T01:00:00Z</time>
      </trkpt>
      <trkpt lat="61.303339" lon="12.243095">
        <ele>448.818</ele>
        <time>1970-01-01T01:00:00Z</time>
      </trkpt>
      <trkpt lat="61.303297" lon="12.243288">
        <ele>448.364</ele>
        <time>1970-01-01T01:00:00Z</time>
      </trkpt>
      <trkpt lat="61.303235" lon="12.243443">
        <ele>447.909</ele>
        <time>1970-01-01T01:00:00Z</time>
      </trkpt>
      <trkpt lat="61.303138" lon="12.24352">
        <ele>447</ele>
        <time>1970-01-01T01:00:00Z</time>
      </trkpt>
      <trkpt lat="61.303033" lon="12.243579">
        <ele>446.091</ele>
        <time>1970-01-01T01:00:00Z</time>
      </trkpt>
      <trkpt lat="61.302931" lon="12.243651">
        <ele>445.636</ele>
        <time>1970-01-01T01:00:00Z</time>
      </trkpt>
      <trkpt lat="61.302825" lon="12.24371">
        <ele>445.182</ele>
        <time>1970-01-01T01:00:00Z</time>
      </trkpt>
      <trkpt lat="61.302739" lon="12.243768">
        <ele>444.727</ele>
        <time>1970-01-01T01:00:00Z</time>
      </trkpt>
      <trkpt lat="61.302672" lon="12.243941">
        <ele>444.273</ele>
        <time>1970-01-01T01:00:00Z</time>
      </trkpt>
      <trkpt lat="61.302577" lon="12.244032">
        <ele>443.818</ele>
        <time>1970-01-01T01:00:00Z</time>
      </trkpt>
      <trkpt lat="61.302477" lon="12.24412">
        <ele>443.364</ele>
        <time>1970-01-01T01:00:00Z</time>
      </trkpt>
      <trkpt lat="61.3024" lon="12.244271">
        <ele>442.909</ele>
        <time>1970-01-01T01:00:00Z</time>
      </trkpt>
      <trkpt lat="61.302359" lon="12.244505">
        <ele>442.455</ele>
        <time>1970-01-01T01:00:00Z</time>
      </trkpt>
      <trkpt lat="61.302258" lon="12.244552">
        <ele>442</ele>
        <time>1970-01-01T01:00:00Z</time>
      </trkpt>
      <trkpt lat="61.302174" lon="12.244461">
        <ele>442</ele>
        <time>1970-01-01T01:00:00Z</time>
      </trkpt>
      <trkpt lat="61.302078" lon="12.244349">
        <ele>442</ele>
        <time>1970-01-01T01:00:00Z</time>
      </trkpt>
      <trkpt lat="61.301975" lon="12.244289">
        <ele>442</ele>
        <time>1970-01-01T01:00:00Z</time>
      </trkpt>
      <trkpt lat="61.301875" lon="12.244385">
        <ele>441.818</ele>
        <time>1970-01-01T01:00:00Z</time>
      </trkpt>
      <trkpt lat="61.301771" lon="12.244456">
        <ele>441.636</ele>
        <time>1970-01-01T01:00:00Z</time>
      </trkpt>
      <trkpt lat="61.301677" lon="12.2445">
        <ele>441.909</ele>
        <time>1970-01-01T01:00:00Z</time>
      </trkpt>
      <trkpt lat="61.301582" lon="12.244543">
        <ele>442.182</ele>
        <time>1970-01-01T01:00:00Z</time>
      </trkpt>
      <trkpt lat="61.301482" lon="12.244586">
        <ele>442.455</ele>
        <time>1970-01-01T01:00:00Z</time>
      </trkpt>
      <trkpt lat="61.301396" lon="12.244665">
        <ele>442.727</ele>
        <time>1970-01-01T01:00:00Z</time>
      </trkpt>
      <trkpt lat="61.30132" lon="12.244784">
        <ele>443</ele>
        <time>1970-01-01T01:00:00Z</time>
      </trkpt>
      <trkpt lat="61.301224" lon="12.244905">
        <ele>443.273</ele>
        <time>1970-01-01T01:00:00Z</time>
      </trkpt>
      <trkpt lat="61.301144" lon="12.245007">
        <ele>443.545</ele>
        <time>1970-01-01T01:00:00Z</time>
      </trkpt>
      <trkpt lat="61.301044" lon="12.24507">
        <ele>443.818</ele>
        <time>1970-01-01T01:00:00Z</time>
      </trkpt>
      <trkpt lat="61.300933" lon="12.245053">
        <ele>444.091</ele>
        <time>1970-01-01T01:00:00Z</time>
      </trkpt>
      <trkpt lat="61.300839" lon="12.245074">
        <ele>444.909</ele>
        <time>1970-01-01T01:00:00Z</time>
      </trkpt>
      <trkpt lat="61.300741" lon="12.245143">
        <ele>445.727</ele>
        <time>1970-01-01T01:00:00Z</time>
      </trkpt>
      <trkpt lat="61.300649" lon="12.245155">
        <ele>446.091</ele>
        <time>1970-01-01T01:00:00Z</time>
      </trkpt>
      <trkpt lat="61.300556" lon="12.245196">
        <ele>446.455</ele>
        <time>1970-01-01T01:00:00Z</time>
      </trkpt>
      <trkpt lat="61.300467" lon="12.245169">
        <ele>446.818</ele>
        <time>1970-01-01T01:00:00Z</time>
      </trkpt>
      <trkpt lat="61.300358" lon="12.245163">
        <ele>447.182</ele>
        <time>1970-01-01T01:00:00Z</time>
      </trkpt>
      <trkpt lat="61.300268" lon="12.245275">
        <ele>447.545</ele>
        <time>1970-01-01T01:00:00Z</time>
      </trkpt>
      <trkpt lat="61.300161" lon="12.245304">
        <ele>447.636</ele>
        <time>1970-01-01T01:00:00Z</time>
      </trkpt>
      <trkpt lat="61.300068" lon="12.245336">
        <ele>448.091</ele>
        <time>1970-01-01T01:00:00Z</time>
      </trkpt>
      <trkpt lat="61.299961" lon="12.245344">
        <ele>448.545</ele>
        <time>1970-01-01T01:00:00Z</time>
      </trkpt>
      <trkpt lat="61.299863" lon="12.245341">
        <ele>449</ele>
        <time>1970-01-01T01:00:00Z</time>
      </trkpt>
      <trkpt lat="61.299775" lon="12.245392">
        <ele>449.091</ele>
        <time>1970-01-01T01:00:00Z</time>
      </trkpt>
      <trkpt lat="61.299674" lon="12.245419">
        <ele>449.182</ele>
        <time>1970-01-01T01:00:00Z</time>
      </trkpt>
      <trkpt lat="61.299567" lon="12.245433">
        <ele>449.273</ele>
        <time>1970-01-01T01:00:00Z</time>
      </trkpt>
      <trkpt lat="61.299468" lon="12.245492">
        <ele>449.364</ele>
        <time>1970-01-01T01:00:00Z</time>
      </trkpt>
      <trkpt lat="61.299367" lon="12.245561">
        <ele>449.455</ele>
        <time>1970-01-01T01:00:00Z</time>
      </trkpt>
      <trkpt lat="61.29927" lon="12.245553">
        <ele>449.636</ele>
        <time>1970-01-01T01:00:00Z</time>
      </trkpt>
      <trkpt lat="61.299171" lon="12.245539">
        <ele>449.818</ele>
        <time>1970-01-01T01:00:00Z</time>
      </trkpt>
      <trkpt lat="61.299068" lon="12.245508">
        <ele>450.273</ele>
        <time>1970-01-01T01:00:00Z</time>
      </trkpt>
      <trkpt lat="61.298972" lon="12.245522">
        <ele>450.364</ele>
        <time>1970-01-01T01:00:00Z</time>
      </trkpt>
      <trkpt lat="61.29887" lon="12.245582">
        <ele>450.455</ele>
        <time>1970-01-01T01:00:00Z</time>
      </trkpt>
      <trkpt lat="61.298783" lon="12.245663">
        <ele>450.545</ele>
        <time>1970-01-01T01:00:00Z</time>
      </trkpt>
      <trkpt lat="61.298691" lon="12.245732">
        <ele>450.636</ele>
        <time>1970-01-01T01:00:00Z</time>
      </trkpt>
      <trkpt lat="61.298596" lon="12.245851">
        <ele>450.727</ele>
        <time>1970-01-01T01:00:00Z</time>
      </trkpt>
      <trkpt lat="61.298497" lon="12.245904">
        <ele>450.909</ele>
        <time>1970-01-01T01:00:00Z</time>
      </trkpt>
      <trkpt lat="61.298377" lon="12.24595">
        <ele>451.091</ele>
        <time>1970-01-01T01:00:00Z</time>
      </trkpt>
      <trkpt lat="61.298269" lon="12.245932">
        <ele>451.273</ele>
        <time>1970-01-01T01:00:00Z</time>
      </trkpt>
      <trkpt lat="61.298166" lon="12.245906">
        <ele>451.364</ele>
        <time>1970-01-01T01:00:00Z</time>
      </trkpt>
      <trkpt lat="61.29806" lon="12.245948">
        <ele>451.455</ele>
        <time>1970-01-01T01:00:00Z</time>
      </trkpt>
      <trkpt lat="61.297953" lon="12.246037">
        <ele>451.545</ele>
        <time>1970-01-01T01:00:00Z</time>
      </trkpt>
      <trkpt lat="61.297864" lon="12.246094">
        <ele>451.636</ele>
        <time>1970-01-01T01:00:00Z</time>
      </trkpt>
      <trkpt lat="61.297766" lon="12.246165">
        <ele>451.727</ele>
        <time>1970-01-01T01:00:00Z</time>
      </trkpt>
      <trkpt lat="61.297671" lon="12.246197">
        <ele>451.818</ele>
        <time>1970-01-01T01:00:00Z</time>
      </trkpt>
      <trkpt lat="61.29758" lon="12.246231">
        <ele>452.182</ele>
        <time>1970-01-01T01:00:00Z</time>
      </trkpt>
      <trkpt lat="61.297465" lon="12.246252">
        <ele>452.545</ele>
        <time>1970-01-01T01:00:00Z</time>
      </trkpt>
      <trkpt lat="61.297358" lon="12.246244">
        <ele>452.455</ele>
        <time>1970-01-01T01:00:00Z</time>
      </trkpt>
      <trkpt lat="61.297265" lon="12.246284">
        <ele>452.364</ele>
        <time>1970-01-01T01:00:00Z</time>
      </trkpt>
      <trkpt lat="61.297159" lon="12.246291">
        <ele>452.273</ele>
        <time>1970-01-01T01:00:00Z</time>
      </trkpt>
      <trkpt lat="61.297055" lon="12.24631">
        <ele>452.182</ele>
        <time>1970-01-01T01:00:00Z</time>
      </trkpt>
      <trkpt lat="61.29696" lon="12.246353">
        <ele>452.091</ele>
        <time>1970-01-01T01:00:00Z</time>
      </trkpt>
      <trkpt lat="61.296871" lon="12.246393">
        <ele>452</ele>
        <time>1970-01-01T01:00:00Z</time>
      </trkpt>
      <trkpt lat="61.29678" lon="12.246454">
        <ele>452.182</ele>
        <time>1970-01-01T01:00:00Z</time>
      </trkpt>
      <trkpt lat="61.29666" lon="12.246497">
        <ele>452.364</ele>
        <time>1970-01-01T01:00:00Z</time>
      </trkpt>
      <trkpt lat="61.296554" lon="12.246505">
        <ele>452.545</ele>
        <time>1970-01-01T01:00:00Z</time>
      </trkpt>
      <trkpt lat="61.296447" lon="12.246544">
        <ele>452.455</ele>
        <time>1970-01-01T01:00:00Z</time>
      </trkpt>
      <trkpt lat="61.296338" lon="12.246592">
        <ele>452.364</ele>
        <time>1970-01-01T01:00:00Z</time>
      </trkpt>
      <trkpt lat="61.296246" lon="12.24664">
        <ele>452.636</ele>
        <time>1970-01-01T01:00:00Z</time>
      </trkpt>
      <trkpt lat="61.296149" lon="12.24665">
        <ele>452.909</ele>
        <time>1970-01-01T01:00:00Z</time>
      </trkpt>
      <trkpt lat="61.29604" lon="12.246703">
        <ele>453.182</ele>
        <time>1970-01-01T01:00:00Z</time>
      </trkpt>
      <trkpt lat="61.295938" lon="12.24672">
        <ele>453.455</ele>
        <time>1970-01-01T01:00:00Z</time>
      </trkpt>
      <trkpt lat="61.295845" lon="12.24672">
        <ele>453.909</ele>
        <time>1970-01-01T01:00:00Z</time>
      </trkpt>
      <trkpt lat="61.295738" lon="12.246751">
        <ele>454.364</ele>
        <time>1970-01-01T01:00:00Z</time>
      </trkpt>
      <trkpt lat="61.295643" lon="12.246775">
        <ele>454.545</ele>
        <time>1970-01-01T01:00:00Z</time>
      </trkpt>
      <trkpt lat="61.295549" lon="12.24681">
        <ele>454.727</ele>
        <time>1970-01-01T01:00:00Z</time>
      </trkpt>
      <trkpt lat="61.295454" lon="12.246832">
        <ele>454.909</ele>
        <time>1970-01-01T01:00:00Z</time>
      </trkpt>
      <trkpt lat="61.295337" lon="12.246844">
        <ele>455.091</ele>
        <time>1970-01-01T01:00:00Z</time>
      </trkpt>
      <trkpt lat="61.295238" lon="12.246865">
        <ele>455.273</ele>
        <time>1970-01-01T01:00:00Z</time>
      </trkpt>
      <trkpt lat="61.295143" lon="12.246848">
        <ele>455.455</ele>
        <time>1970-01-01T01:00:00Z</time>
      </trkpt>
      <trkpt lat="61.295039" lon="12.246921">
        <ele>455.636</ele>
        <time>1970-01-01T01:00:00Z</time>
      </trkpt>
      <trkpt lat="61.294945" lon="12.246993">
        <ele>455.818</ele>
        <time>1970-01-01T01:00:00Z</time>
      </trkpt>
      <trkpt lat="61.294833" lon="12.247039">
        <ele>456</ele>
        <time>1970-01-01T01:00:00Z</time>
      </trkpt>
      <trkpt lat="61.294727" lon="12.247085">
        <ele>455.727</ele>
        <time>1970-01-01T01:00:00Z</time>
      </trkpt>
      <trkpt lat="61.294627" lon="12.247168">
        <ele>455.455</ele>
        <time>1970-01-01T01:00:00Z</time>
      </trkpt>
      <trkpt lat="61.294537" lon="12.247195">
        <ele>455.182</ele>
        <time>1970-01-01T01:00:00Z</time>
      </trkpt>
      <trkpt lat="61.294442" lon="12.247187">
        <ele>454.909</ele>
        <time>1970-01-01T01:00:00Z</time>
      </trkpt>
      <trkpt lat="61.294337" lon="12.247191">
        <ele>454.636</ele>
        <time>1970-01-01T01:00:00Z</time>
      </trkpt>
      <trkpt lat="61.294227" lon="12.247229">
        <ele>454.455</ele>
        <time>1970-01-01T01:00:00Z</time>
      </trkpt>
      <trkpt lat="61.294136" lon="12.247285">
        <ele>454.273</ele>
        <time>1970-01-01T01:00:00Z</time>
      </trkpt>
      <trkpt lat="61.294042" lon="12.24735">
        <ele>454.091</ele>
        <time>1970-01-01T01:00:00Z</time>
      </trkpt>
      <trkpt lat="61.293946" lon="12.247373">
        <ele>454.273</ele>
        <time>1970-01-01T01:00:00Z</time>
      </trkpt>
      <trkpt lat="61.293838" lon="12.247315">
        <ele>454.091</ele>
        <time>1970-01-01T01:00:00Z</time>
      </trkpt>
      <trkpt lat="61.293729" lon="12.247293">
        <ele>453.909</ele>
        <time>1970-01-01T01:00:00Z</time>
      </trkpt>
      <trkpt lat="61.29363" lon="12.24728">
        <ele>454</ele>
        <time>1970-01-01T01:00:00Z</time>
      </trkpt>
      <trkpt lat="61.293541" lon="12.247217">
        <ele>454.091</ele>
        <time>1970-01-01T01:00:00Z</time>
      </trkpt>
      <trkpt lat="61.293443" lon="12.247183">
        <ele>454.182</ele>
        <time>1970-01-01T01:00:00Z</time>
      </trkpt>
      <trkpt lat="61.293347" lon="12.247233">
        <ele>454.364</ele>
        <time>1970-01-01T01:00:00Z</time>
      </trkpt>
      <trkpt lat="61.293261" lon="12.247304">
        <ele>454.545</ele>
        <time>1970-01-01T01:00:00Z</time>
      </trkpt>
      <trkpt lat="61.293178" lon="12.247421">
        <ele>454.636</ele>
        <time>1970-01-01T01:00:00Z</time>
      </trkpt>
      <trkpt lat="61.293088" lon="12.247486">
        <ele>454.727</ele>
        <time>1970-01-01T01:00:00Z</time>
      </trkpt>
      <trkpt lat="61.293001" lon="12.247535">
        <ele>454.818</ele>
        <time>1970-01-01T01:00:00Z</time>
      </trkpt>
      <trkpt lat="61.292901" lon="12.247531">
        <ele>454.545</ele>
        <time>1970-01-01T01:00:00Z</time>
      </trkpt>
      <trkpt lat="61.292787" lon="12.247576">
        <ele>454.636</ele>
        <time>1970-01-01T01:00:00Z</time>
      </trkpt>
      <trkpt lat="61.29269" lon="12.2476">
        <ele>454.727</ele>
        <time>1970-01-01T01:00:00Z</time>
      </trkpt>
      <trkpt lat="61.292593" lon="12.247655">
        <ele>455.182</ele>
        <time>1970-01-01T01:00:00Z</time>
      </trkpt>
      <trkpt lat="61.292494" lon="12.247733">
        <ele>455.636</ele>
        <time>1970-01-01T01:00:00Z</time>
      </trkpt>
      <trkpt lat="61.292384" lon="12.247768">
        <ele>456.091</ele>
        <time>1970-01-01T01:00:00Z</time>
      </trkpt>
      <trkpt lat="61.292272" lon="12.247778">
        <ele>456.455</ele>
        <time>1970-01-01T01:00:00Z</time>
      </trkpt>
      <trkpt lat="61.292163" lon="12.24776">
        <ele>456.818</ele>
        <time>1970-01-01T01:00:00Z</time>
      </trkpt>
      <trkpt lat="61.292067" lon="12.247713">
        <ele>457.182</ele>
        <time>1970-01-01T01:00:00Z</time>
      </trkpt>
      <trkpt lat="61.291971" lon="12.247699">
        <ele>457.545</ele>
        <time>1970-01-01T01:00:00Z</time>
      </trkpt>
      <trkpt lat="61.291875" lon="12.2477">
        <ele>457.909</ele>
        <time>1970-01-01T01:00:00Z</time>
      </trkpt>
      <trkpt lat="61.291773" lon="12.247727">
        <ele>458.455</ele>
        <time>1970-01-01T01:00:00Z</time>
      </trkpt>
      <trkpt lat="61.291668" lon="12.247754">
        <ele>458.818</ele>
        <time>1970-01-01T01:00:00Z</time>
      </trkpt>
      <trkpt lat="61.291558" lon="12.247787">
        <ele>459.182</ele>
        <time>1970-01-01T01:00:00Z</time>
      </trkpt>
      <trkpt lat="61.291457" lon="12.247839">
        <ele>459.182</ele>
        <time>1970-01-01T01:00:00Z</time>
      </trkpt>
      <trkpt lat="61.291358" lon="12.247917">
        <ele>459.182</ele>
        <time>1970-01-01T01:00:00Z</time>
      </trkpt>
      <trkpt lat="61.291257" lon="12.247969">
        <ele>459.182</ele>
        <time>1970-01-01T01:00:00Z</time>
      </trkpt>
      <trkpt lat="61.291161" lon="12.248055">
        <ele>459.182</ele>
        <time>1970-01-01T01:00:00Z</time>
      </trkpt>
      <trkpt lat="61.291081" lon="12.248202">
        <ele>459.182</ele>
        <time>1970-01-01T01:00:00Z</time>
      </trkpt>
      <trkpt lat="61.290989" lon="12.248281">
        <ele>459.182</ele>
        <time>1970-01-01T01:00:00Z</time>
      </trkpt>
      <trkpt lat="61.290888" lon="12.24833">
        <ele>459.364</ele>
        <time>1970-01-01T01:00:00Z</time>
      </trkpt>
      <trkpt lat="61.290786" lon="12.248383">
        <ele>459.545</ele>
        <time>1970-01-01T01:00:00Z</time>
      </trkpt>
      <trkpt lat="61.290696" lon="12.248486">
        <ele>459.545</ele>
        <time>1970-01-01T01:00:00Z</time>
      </trkpt>
      <trkpt lat="61.290587" lon="12.248572">
        <ele>459.636</ele>
        <time>1970-01-01T01:00:00Z</time>
      </trkpt>
      <trkpt lat="61.290499" lon="12.248627">
        <ele>459.727</ele>
        <time>1970-01-01T01:00:00Z</time>
      </trkpt>
      <trkpt lat="61.290409" lon="12.248672">
        <ele>459.818</ele>
        <time>1970-01-01T01:00:00Z</time>
      </trkpt>
      <trkpt lat="61.290313" lon="12.248713">
        <ele>459.909</ele>
        <time>1970-01-01T01:00:00Z</time>
      </trkpt>
      <trkpt lat="61.290201" lon="12.248784">
        <ele>460</ele>
        <time>1970-01-01T01:00:00Z</time>
      </trkpt>
      <trkpt lat="61.290099" lon="12.248852">
        <ele>460.091</ele>
        <time>1970-01-01T01:00:00Z</time>
      </trkpt>
      <trkpt lat="61.290008" lon="12.248902">
        <ele>460.273</ele>
        <time>1970-01-01T01:00:00Z</time>
      </trkpt>
      <trkpt lat="61.28994" lon="12.249058">
        <ele>460.455</ele>
        <time>1970-01-01T01:00:00Z</time>
      </trkpt>
      <trkpt lat="61.289857" lon="12.249152">
        <ele>460.455</ele>
        <time>1970-01-01T01:00:00Z</time>
      </trkpt>
      <trkpt lat="61.289771" lon="12.24921">
        <ele>460.455</ele>
        <time>1970-01-01T01:00:00Z</time>
      </trkpt>
      <trkpt lat="61.289672" lon="12.249289">
        <ele>460.091</ele>
        <time>1970-01-01T01:00:00Z</time>
      </trkpt>
      <trkpt lat="61.289578" lon="12.249394">
        <ele>459.818</ele>
        <time>1970-01-01T01:00:00Z</time>
      </trkpt>
      <trkpt lat="61.289495" lon="12.249468">
        <ele>459.545</ele>
        <time>1970-01-01T01:00:00Z</time>
      </trkpt>
      <trkpt lat="61.289407" lon="12.249538">
        <ele>459.273</ele>
        <time>1970-01-01T01:00:00Z</time>
      </trkpt>
      <trkpt lat="61.289305" lon="12.249588">
        <ele>459</ele>
        <time>1970-01-01T01:00:00Z</time>
      </trkpt>
      <trkpt lat="61.289222" lon="12.249671">
        <ele>458.818</ele>
        <time>1970-01-01T01:00:00Z</time>
      </trkpt>
      <trkpt lat="61.289114" lon="12.249777">
        <ele>458.636</ele>
        <time>1970-01-01T01:00:00Z</time>
      </trkpt>
      <trkpt lat="61.289014" lon="12.249885">
        <ele>458.364</ele>
        <time>1970-01-01T01:00:00Z</time>
      </trkpt>
      <trkpt lat="61.288915" lon="12.250007">
        <ele>458.091</ele>
        <time>1970-01-01T01:00:00Z</time>
      </trkpt>
      <trkpt lat="61.288827" lon="12.250082">
        <ele>457.455</ele>
        <time>1970-01-01T01:00:00Z</time>
      </trkpt>
      <trkpt lat="61.288749" lon="12.250172">
        <ele>456.818</ele>
        <time>1970-01-01T01:00:00Z</time>
      </trkpt>
      <trkpt lat="61.288661" lon="12.250248">
        <ele>456.545</ele>
        <time>1970-01-01T01:00:00Z</time>
      </trkpt>
      <trkpt lat="61.288553" lon="12.250306">
        <ele>456.273</ele>
        <time>1970-01-01T01:00:00Z</time>
      </trkpt>
      <trkpt lat="61.288485" lon="12.250457">
        <ele>456</ele>
        <time>1970-01-01T01:00:00Z</time>
      </trkpt>
      <trkpt lat="61.288419" lon="12.250593">
        <ele>455.727</ele>
        <time>1970-01-01T01:00:00Z</time>
      </trkpt>
      <trkpt lat="61.288336" lon="12.250692">
        <ele>455.909</ele>
        <time>1970-01-01T01:00:00Z</time>
      </trkpt>
      <trkpt lat="61.288258" lon="12.250793">
        <ele>455.818</ele>
        <time>1970-01-01T01:00:00Z</time>
      </trkpt>
      <trkpt lat="61.288159" lon="12.250931">
        <ele>455.727</ele>
        <time>1970-01-01T01:00:00Z</time>
      </trkpt>
      <trkpt lat="61.288082" lon="12.251036">
        <ele>455.636</ele>
        <time>1970-01-01T01:00:00Z</time>
      </trkpt>
      <trkpt lat="61.287994" lon="12.251144">
        <ele>455.545</ele>
        <time>1970-01-01T01:00:00Z</time>
      </trkpt>
      <trkpt lat="61.287916" lon="12.251268">
        <ele>455.818</ele>
        <time>1970-01-01T01:00:00Z</time>
      </trkpt>
      <trkpt lat="61.287831" lon="12.251399">
        <ele>456.091</ele>
        <time>1970-01-01T01:00:00Z</time>
      </trkpt>
      <trkpt lat="61.287729" lon="12.251533">
        <ele>456.364</ele>
        <time>1970-01-01T01:00:00Z</time>
      </trkpt>
      <trkpt lat="61.287605" lon="12.251652">
        <ele>456.364</ele>
        <time>1970-01-01T01:00:00Z</time>
      </trkpt>
      <trkpt lat="61.287565" lon="12.251822">
        <ele>456.727</ele>
        <time>1970-01-01T01:00:00Z</time>
      </trkpt>
      <trkpt lat="61.287482" lon="12.251953">
        <ele>457.091</ele>
        <time>1970-01-01T01:00:00Z</time>
      </trkpt>
      <trkpt lat="61.287387" lon="12.25204">
        <ele>457</ele>
        <time>1970-01-01T01:00:00Z</time>
      </trkpt>
      <trkpt lat="61.2873" lon="12.25213">
        <ele>457.091</ele>
        <time>1970-01-01T01:00:00Z</time>
      </trkpt>
      <trkpt lat="61.287192" lon="12.252205">
        <ele>457.182</ele>
        <time>1970-01-01T01:00:00Z</time>
      </trkpt>
      <trkpt lat="61.287085" lon="12.252344">
        <ele>457.273</ele>
        <time>1970-01-01T01:00:00Z</time>
      </trkpt>
      <trkpt lat="61.287003" lon="12.252489">
        <ele>457.364</ele>
        <time>1970-01-01T01:00:00Z</time>
      </trkpt>
      <trkpt lat="61.286946" lon="12.252644">
        <ele>457.455</ele>
        <time>1970-01-01T01:00:00Z</time>
      </trkpt>
      <trkpt lat="61.286853" lon="12.252654">
        <ele>457.545</ele>
        <time>1970-01-01T01:00:00Z</time>
      </trkpt>
      <trkpt lat="61.286746" lon="12.252728">
        <ele>457.636</ele>
        <time>1970-01-01T01:00:00Z</time>
      </trkpt>
      <trkpt lat="61.286653" lon="12.252765">
        <ele>458.091</ele>
        <time>1970-01-01T01:00:00Z</time>
      </trkpt>
      <trkpt lat="61.286567" lon="12.252819">
        <ele>458.182</ele>
        <time>1970-01-01T01:00:00Z</time>
      </trkpt>
      <trkpt lat="61.286472" lon="12.252837">
        <ele>458.273</ele>
        <time>1970-01-01T01:00:00Z</time>
      </trkpt>
      <trkpt lat="61.286366" lon="12.25285">
        <ele>458.182</ele>
        <time>1970-01-01T01:00:00Z</time>
      </trkpt>
      <trkpt lat="61.286272" lon="12.252777">
        <ele>458.091</ele>
        <time>1970-01-01T01:00:00Z</time>
      </trkpt>
      <trkpt lat="61.286178" lon="12.252747">
        <ele>458</ele>
        <time>1970-01-01T01:00:00Z</time>
      </trkpt>
      <trkpt lat="61.286078" lon="12.252807">
        <ele>457.909</ele>
        <time>1970-01-01T01:00:00Z</time>
      </trkpt>
      <trkpt lat="61.286001" lon="12.252929">
        <ele>457.818</ele>
        <time>1970-01-01T01:00:00Z</time>
      </trkpt>
      <trkpt lat="61.285915" lon="12.252996">
        <ele>457.727</ele>
        <time>1970-01-01T01:00:00Z</time>
      </trkpt>
      <trkpt lat="61.285832" lon="12.253088">
        <ele>457.818</ele>
        <time>1970-01-01T01:00:00Z</time>
      </trkpt>
      <trkpt lat="61.28573" lon="12.25317">
        <ele>457.909</ele>
        <time>1970-01-01T01:00:00Z</time>
      </trkpt>
      <trkpt lat="61.285646" lon="12.253247">
        <ele>457.909</ele>
        <time>1970-01-01T01:00:00Z</time>
      </trkpt>
      <trkpt lat="61.285533" lon="12.253258">
        <ele>457.909</ele>
        <time>1970-01-01T01:00:00Z</time>
      </trkpt>
      <trkpt lat="61.285446" lon="12.253328">
        <ele>457.909</ele>
        <time>1970-01-01T01:00:00Z</time>
      </trkpt>
      <trkpt lat="61.285346" lon="12.253416">
        <ele>457.818</ele>
        <time>1970-01-01T01:00:00Z</time>
      </trkpt>
      <trkpt lat="61.285255" lon="12.253526">
        <ele>457.727</ele>
        <time>1970-01-01T01:00:00Z</time>
      </trkpt>
      <trkpt lat="61.28516" lon="12.253629">
        <ele>457.636</ele>
        <time>1970-01-01T01:00:00Z</time>
      </trkpt>
      <trkpt lat="61.285064" lon="12.25369">
        <ele>457.545</ele>
        <time>1970-01-01T01:00:00Z</time>
      </trkpt>
      <trkpt lat="61.284957" lon="12.253745">
        <ele>457.455</ele>
        <time>1970-01-01T01:00:00Z</time>
      </trkpt>
      <trkpt lat="61.284877" lon="12.25383">
        <ele>457.364</ele>
        <time>1970-01-01T01:00:00Z</time>
      </trkpt>
      <trkpt lat="61.284792" lon="12.253907">
        <ele>457.091</ele>
        <time>1970-01-01T01:00:00Z</time>
      </trkpt>
      <trkpt lat="61.284696" lon="12.253964">
        <ele>456.818</ele>
        <time>1970-01-01T01:00:00Z</time>
      </trkpt>
      <trkpt lat="61.284592" lon="12.254004">
        <ele>456.545</ele>
        <time>1970-01-01T01:00:00Z</time>
      </trkpt>
      <trkpt lat="61.284493" lon="12.254042">
        <ele>456.273</ele>
        <time>1970-01-01T01:00:00Z</time>
      </trkpt>
      <trkpt lat="61.284399" lon="12.254091">
        <ele>456</ele>
        <time>1970-01-01T01:00:00Z</time>
      </trkpt>
      <trkpt lat="61.284297" lon="12.254135">
        <ele>456</ele>
        <time>1970-01-01T01:00:00Z</time>
      </trkpt>
      <trkpt lat="61.284185" lon="12.254217">
        <ele>455.909</ele>
        <time>1970-01-01T01:00:00Z</time>
      </trkpt>
      <trkpt lat="61.284086" lon="12.25428">
        <ele>455.818</ele>
        <time>1970-01-01T01:00:00Z</time>
      </trkpt>
      <trkpt lat="61.283986" lon="12.254375">
        <ele>455.727</ele>
        <time>1970-01-01T01:00:00Z</time>
      </trkpt>
      <trkpt lat="61.283914" lon="12.254487">
        <ele>455.636</ele>
        <time>1970-01-01T01:00:00Z</time>
      </trkpt>
      <trkpt lat="61.28382" lon="12.254591">
        <ele>455.545</ele>
        <time>1970-01-01T01:00:00Z</time>
      </trkpt>
      <trkpt lat="61.283721" lon="12.254668">
        <ele>455.455</ele>
        <time>1970-01-01T01:00:00Z</time>
      </trkpt>
      <trkpt lat="61.283634" lon="12.254734">
        <ele>455.364</ele>
        <time>1970-01-01T01:00:00Z</time>
      </trkpt>
      <trkpt lat="61.283533" lon="12.254768">
        <ele>455.273</ele>
        <time>1970-01-01T01:00:00Z</time>
      </trkpt>
      <trkpt lat="61.283429" lon="12.254766">
        <ele>455.455</ele>
        <time>1970-01-01T01:00:00Z</time>
      </trkpt>
      <trkpt lat="61.283331" lon="12.254808">
        <ele>455.636</ele>
        <time>1970-01-01T01:00:00Z</time>
      </trkpt>
      <trkpt lat="61.283232" lon="12.254936">
        <ele>455.818</ele>
        <time>1970-01-01T01:00:00Z</time>
      </trkpt>
      <trkpt lat="61.283137" lon="12.255066">
        <ele>456</ele>
        <time>1970-01-01T01:00:00Z</time>
      </trkpt>
      <trkpt lat="61.283026" lon="12.255144">
        <ele>456.182</ele>
        <time>1970-01-01T01:00:00Z</time>
      </trkpt>
      <trkpt lat="61.282912" lon="12.255173">
        <ele>456.364</ele>
        <time>1970-01-01T01:00:00Z</time>
      </trkpt>
      <trkpt lat="61.282826" lon="12.255229">
        <ele>456.545</ele>
        <time>1970-01-01T01:00:00Z</time>
      </trkpt>
      <trkpt lat="61.282738" lon="12.255362">
        <ele>456.727</ele>
        <time>1970-01-01T01:00:00Z</time>
      </trkpt>
      <trkpt lat="61.282653" lon="12.255457">
        <ele>456.909</ele>
        <time>1970-01-01T01:00:00Z</time>
      </trkpt>
      <trkpt lat="61.282563" lon="12.25554">
        <ele>457.545</ele>
        <time>1970-01-01T01:00:00Z</time>
      </trkpt>
      <trkpt lat="61.282459" lon="12.25559">
        <ele>458.182</ele>
        <time>1970-01-01T01:00:00Z</time>
      </trkpt>
      <trkpt lat="61.282363" lon="12.255647">
        <ele>458.545</ele>
        <time>1970-01-01T01:00:00Z</time>
      </trkpt>
      <trkpt lat="61.282255" lon="12.255576">
        <ele>458.909</ele>
        <time>1970-01-01T01:00:00Z</time>
      </trkpt>
      <trkpt lat="61.282141" lon="12.255455">
        <ele>459.273</ele>
        <time>1970-01-01T01:00:00Z</time>
      </trkpt>
      <trkpt lat="61.282037" lon="12.25543">
        <ele>459.727</ele>
        <time>1970-01-01T01:00:00Z</time>
      </trkpt>
      <trkpt lat="61.281951" lon="12.25554">
        <ele>460.182</ele>
        <time>1970-01-01T01:00:00Z</time>
      </trkpt>
      <trkpt lat="61.28185" lon="12.255635">
        <ele>460.636</ele>
        <time>1970-01-01T01:00:00Z</time>
      </trkpt>
      <trkpt lat="61.281759" lon="12.255693">
        <ele>461.091</ele>
        <time>1970-01-01T01:00:00Z</time>
      </trkpt>
      <trkpt lat="61.281681" lon="12.255856">
        <ele>462</ele>
        <time>1970-01-01T01:00:00Z</time>
      </trkpt>
      <trkpt lat="61.281591" lon="12.255985">
        <ele>462.545</ele>
        <time>1970-01-01T01:00:00Z</time>
      </trkpt>
      <trkpt lat="61.281505" lon="12.256068">
        <ele>462.636</ele>
        <time>1970-01-01T01:00:00Z</time>
      </trkpt>
      <trkpt lat="61.281419" lon="12.256138">
        <ele>462.727</ele>
        <time>1970-01-01T01:00:00Z</time>
      </trkpt>
      <trkpt lat="61.281325" lon="12.256181">
        <ele>462.818</ele>
        <time>1970-01-01T01:00:00Z</time>
      </trkpt>
      <trkpt lat="61.281248" lon="12.25629">
        <ele>462.909</ele>
        <time>1970-01-01T01:00:00Z</time>
      </trkpt>
      <trkpt lat="61.281148" lon="12.256398">
        <ele>463</ele>
        <time>1970-01-01T01:00:00Z</time>
      </trkpt>
      <trkpt lat="61.281068" lon="12.256489">
        <ele>463.091</ele>
        <time>1970-01-01T01:00:00Z</time>
      </trkpt>
      <trkpt lat="61.280976" lon="12.256578">
        <ele>463</ele>
        <time>1970-01-01T01:00:00Z</time>
      </trkpt>
      <trkpt lat="61.280917" lon="12.256741">
        <ele>462.909</ele>
        <time>1970-01-01T01:00:00Z</time>
      </trkpt>
      <trkpt lat="61.280837" lon="12.256912">
        <ele>463</ele>
        <time>1970-01-01T01:00:00Z</time>
      </trkpt>
      <trkpt lat="61.280767" lon="12.257077">
        <ele>462.636</ele>
        <time>1970-01-01T01:00:00Z</time>
      </trkpt>
      <trkpt lat="61.280688" lon="12.257195">
        <ele>462.636</ele>
        <time>1970-01-01T01:00:00Z</time>
      </trkpt>
      <trkpt lat="61.280605" lon="12.257285">
        <ele>462.636</ele>
        <time>1970-01-01T01:00:00Z</time>
      </trkpt>
      <trkpt lat="61.280525" lon="12.257371">
        <ele>462.636</ele>
        <time>1970-01-01T01:00:00Z</time>
      </trkpt>
      <trkpt lat="61.280443" lon="12.257478">
        <ele>462.636</ele>
        <time>1970-01-01T01:00:00Z</time>
      </trkpt>
      <trkpt lat="61.28034" lon="12.257553">
        <ele>462.636</ele>
        <time>1970-01-01T01:00:00Z</time>
      </trkpt>
      <trkpt lat="61.280244" lon="12.257665">
        <ele>462.455</ele>
        <time>1970-01-01T01:00:00Z</time>
      </trkpt>
      <trkpt lat="61.280145" lon="12.257719">
        <ele>462.273</ele>
        <time>1970-01-01T01:00:00Z</time>
      </trkpt>
      <trkpt lat="61.280049" lon="12.257806">
        <ele>462.273</ele>
        <time>1970-01-01T01:00:00Z</time>
      </trkpt>
      <trkpt lat="61.279977" lon="12.257956">
        <ele>462.273</ele>
        <time>1970-01-01T01:00:00Z</time>
      </trkpt>
      <trkpt lat="61.279875" lon="12.258017">
        <ele>462.091</ele>
        <time>1970-01-01T01:00:00Z</time>
      </trkpt>
      <trkpt lat="61.279779" lon="12.258112">
        <ele>461.909</ele>
        <time>1970-01-01T01:00:00Z</time>
      </trkpt>
      <trkpt lat="61.279702" lon="12.258217">
        <ele>461.727</ele>
        <time>1970-01-01T01:00:00Z</time>
      </trkpt>
      <trkpt lat="61.279613" lon="12.258307">
        <ele>461.545</ele>
        <time>1970-01-01T01:00:00Z</time>
      </trkpt>
      <trkpt lat="61.279523" lon="12.258353">
        <ele>461.364</ele>
        <time>1970-01-01T01:00:00Z</time>
      </trkpt>
      <trkpt lat="61.27941" lon="12.25839">
        <ele>461.182</ele>
        <time>1970-01-01T01:00:00Z</time>
      </trkpt>
      <trkpt lat="61.279312" lon="12.258433">
        <ele>461</ele>
        <time>1970-01-01T01:00:00Z</time>
      </trkpt>
      <trkpt lat="61.279222" lon="12.258496">
        <ele>460.909</ele>
        <time>1970-01-01T01:00:00Z</time>
      </trkpt>
      <trkpt lat="61.279139" lon="12.258611">
        <ele>460.818</ele>
        <time>1970-01-01T01:00:00Z</time>
      </trkpt>
      <trkpt lat="61.279054" lon="12.258688">
        <ele>460.727</ele>
        <time>1970-01-01T01:00:00Z</time>
      </trkpt>
      <trkpt lat="61.278961" lon="12.258755">
        <ele>460.636</ele>
        <time>1970-01-01T01:00:00Z</time>
      </trkpt>
      <trkpt lat="61.278857" lon="12.258839">
        <ele>460.545</ele>
        <time>1970-01-01T01:00:00Z</time>
      </trkpt>
      <trkpt lat="61.278752" lon="12.25892">
        <ele>460.455</ele>
        <time>1970-01-01T01:00:00Z</time>
      </trkpt>
      <trkpt lat="61.278668" lon="12.259033">
        <ele>460.364</ele>
        <time>1970-01-01T01:00:00Z</time>
      </trkpt>
      <trkpt lat="61.278575" lon="12.259132">
        <ele>460.273</ele>
        <time>1970-01-01T01:00:00Z</time>
      </trkpt>
      <trkpt lat="61.278463" lon="12.259183">
        <ele>460.182</ele>
        <time>1970-01-01T01:00:00Z</time>
      </trkpt>
      <trkpt lat="61.278375" lon="12.259257">
        <ele>460.545</ele>
        <time>1970-01-01T01:00:00Z</time>
      </trkpt>
      <trkpt lat="61.278294" lon="12.259342">
        <ele>460.909</ele>
        <time>1970-01-01T01:00:00Z</time>
      </trkpt>
      <trkpt lat="61.278194" lon="12.259404">
        <ele>461.182</ele>
        <time>1970-01-01T01:00:00Z</time>
      </trkpt>
      <trkpt lat="61.278094" lon="12.259504">
        <ele>461.455</ele>
        <time>1970-01-01T01:00:00Z</time>
      </trkpt>
      <trkpt lat="61.277989" lon="12.259599">
        <ele>461.727</ele>
        <time>1970-01-01T01:00:00Z</time>
      </trkpt>
      <trkpt lat="61.277889" lon="12.259614">
        <ele>462</ele>
        <time>1970-01-01T01:00:00Z</time>
      </trkpt>
      <trkpt lat="61.277799" lon="12.259642">
        <ele>462.273</ele>
        <time>1970-01-01T01:00:00Z</time>
      </trkpt>
      <trkpt lat="61.277684" lon="12.259687">
        <ele>462.545</ele>
        <time>1970-01-01T01:00:00Z</time>
      </trkpt>
      <trkpt lat="61.277579" lon="12.25974">
        <ele>463.091</ele>
        <time>1970-01-01T01:00:00Z</time>
      </trkpt>
      <trkpt lat="61.27748" lon="12.259844">
        <ele>463.636</ele>
        <time>1970-01-01T01:00:00Z</time>
      </trkpt>
      <trkpt lat="61.277374" lon="12.259848">
        <ele>464.182</ele>
        <time>1970-01-01T01:00:00Z</time>
      </trkpt>
      <trkpt lat="61.277275" lon="12.259914">
        <ele>464.273</ele>
        <time>1970-01-01T01:00:00Z</time>
      </trkpt>
      <trkpt lat="61.277155" lon="12.259943">
        <ele>464.364</ele>
        <time>1970-01-01T01:00:00Z</time>
      </trkpt>
      <trkpt lat="61.277034" lon="12.259987">
        <ele>464.636</ele>
        <time>1970-01-01T01:00:00Z</time>
      </trkpt>
      <trkpt lat="61.276937" lon="12.25999">
        <ele>464.909</ele>
        <time>1970-01-01T01:00:00Z</time>
      </trkpt>
      <trkpt lat="61.276841" lon="12.260025">
        <ele>465.182</ele>
        <time>1970-01-01T01:00:00Z</time>
      </trkpt>
      <trkpt lat="61.276732" lon="12.260047">
        <ele>465.818</ele>
        <time>1970-01-01T01:00:00Z</time>
      </trkpt>
      <trkpt lat="61.276614" lon="12.26006">
        <ele>466.455</ele>
        <time>1970-01-01T01:00:00Z</time>
      </trkpt>
      <trkpt lat="61.276509" lon="12.260088">
        <ele>467.091</ele>
        <time>1970-01-01T01:00:00Z</time>
      </trkpt>
      <trkpt lat="61.27643" lon="12.260185">
        <ele>467.455</ele>
        <time>1970-01-01T01:00:00Z</time>
      </trkpt>
      <trkpt lat="61.276337" lon="12.260279">
        <ele>467.455</ele>
        <time>1970-01-01T01:00:00Z</time>
      </trkpt>
      <trkpt lat="61.276238" lon="12.260314">
        <ele>467.455</ele>
        <time>1970-01-01T01:00:00Z</time>
      </trkpt>
      <trkpt lat="61.276127" lon="12.260348">
        <ele>467.455</ele>
        <time>1970-01-01T01:00:00Z</time>
      </trkpt>
      <trkpt lat="61.276023" lon="12.2604">
        <ele>467.455</ele>
        <time>1970-01-01T01:00:00Z</time>
      </trkpt>
      <trkpt lat="61.275932" lon="12.260486">
        <ele>467.636</ele>
        <time>1970-01-01T01:00:00Z</time>
      </trkpt>
      <trkpt lat="61.275844" lon="12.26054">
        <ele>467.818</ele>
        <time>1970-01-01T01:00:00Z</time>
      </trkpt>
      <trkpt lat="61.275745" lon="12.26059">
        <ele>468</ele>
        <time>1970-01-01T01:00:00Z</time>
      </trkpt>
      <trkpt lat="61.275623" lon="12.260599">
        <ele>467.818</ele>
        <time>1970-01-01T01:00:00Z</time>
      </trkpt>
      <trkpt lat="61.275532" lon="12.260638">
        <ele>467.636</ele>
        <time>1970-01-01T01:00:00Z</time>
      </trkpt>
      <trkpt lat="61.27543" lon="12.260652">
        <ele>467.455</ele>
        <time>1970-01-01T01:00:00Z</time>
      </trkpt>
      <trkpt lat="61.27534" lon="12.260715">
        <ele>467.273</ele>
        <time>1970-01-01T01:00:00Z</time>
      </trkpt>
      <trkpt lat="61.275238" lon="12.26081">
        <ele>467.455</ele>
        <time>1970-01-01T01:00:00Z</time>
      </trkpt>
      <trkpt lat="61.275136" lon="12.260799">
        <ele>468.091</ele>
        <time>1970-01-01T01:00:00Z</time>
      </trkpt>
      <trkpt lat="61.275033" lon="12.260809">
        <ele>468.727</ele>
        <time>1970-01-01T01:00:00Z</time>
      </trkpt>
      <trkpt lat="61.27492" lon="12.260838">
        <ele>469.364</ele>
        <time>1970-01-01T01:00:00Z</time>
      </trkpt>
      <trkpt lat="61.274811" lon="12.260865">
        <ele>469.818</ele>
        <time>1970-01-01T01:00:00Z</time>
      </trkpt>
      <trkpt lat="61.274705" lon="12.260941">
        <ele>470.273</ele>
        <time>1970-01-01T01:00:00Z</time>
      </trkpt>
      <trkpt lat="61.274606" lon="12.260969">
        <ele>470.727</ele>
        <time>1970-01-01T01:00:00Z</time>
      </trkpt>
      <trkpt lat="61.274492" lon="12.261004">
        <ele>471.182</ele>
        <time>1970-01-01T01:00:00Z</time>
      </trkpt>
      <trkpt lat="61.274396" lon="12.261011">
        <ele>471.636</ele>
        <time>1970-01-01T01:00:00Z</time>
      </trkpt>
      <trkpt lat="61.274288" lon="12.261043">
        <ele>472.091</ele>
        <time>1970-01-01T01:00:00Z</time>
      </trkpt>
      <trkpt lat="61.274196" lon="12.261129">
        <ele>473.091</ele>
        <time>1970-01-01T01:00:00Z</time>
      </trkpt>
      <trkpt lat="61.27411" lon="12.261208">
        <ele>474.091</ele>
        <time>1970-01-01T01:00:00Z</time>
      </trkpt>
      <trkpt lat="61.274011" lon="12.261228">
        <ele>474.273</ele>
        <time>1970-01-01T01:00:00Z</time>
      </trkpt>
      <trkpt lat="61.27391" lon="12.261219">
        <ele>474.455</ele>
        <time>1970-01-01T01:00:00Z</time>
      </trkpt>
      <trkpt lat="61.273808" lon="12.261217">
        <ele>474.636</ele>
        <time>1970-01-01T01:00:00Z</time>
      </trkpt>
      <trkpt lat="61.273698" lon="12.261247">
        <ele>474.818</ele>
        <time>1970-01-01T01:00:00Z</time>
      </trkpt>
      <trkpt lat="61.273598" lon="12.261236">
        <ele>475</ele>
        <time>1970-01-01T01:00:00Z</time>
      </trkpt>
      <trkpt lat="61.273507" lon="12.261319">
        <ele>475.182</ele>
        <time>1970-01-01T01:00:00Z</time>
      </trkpt>
      <trkpt lat="61.273411" lon="12.261352">
        <ele>475.545</ele>
        <time>1970-01-01T01:00:00Z</time>
      </trkpt>
      <trkpt lat="61.273322" lon="12.261397">
        <ele>475.909</ele>
        <time>1970-01-01T01:00:00Z</time>
      </trkpt>
      <trkpt lat="61.273214" lon="12.261424">
        <ele>476.273</ele>
        <time>1970-01-01T01:00:00Z</time>
      </trkpt>
      <trkpt lat="61.273117" lon="12.26146">
        <ele>476.091</ele>
        <time>1970-01-01T01:00:00Z</time>
      </trkpt>
      <trkpt lat="61.273022" lon="12.261531">
        <ele>475.909</ele>
        <time>1970-01-01T01:00:00Z</time>
      </trkpt>
      <trkpt lat="61.272928" lon="12.261554">
        <ele>476.091</ele>
        <time>1970-01-01T01:00:00Z</time>
      </trkpt>
      <trkpt lat="61.27283" lon="12.26159">
        <ele>476.273</ele>
        <time>1970-01-01T01:00:00Z</time>
      </trkpt>
      <trkpt lat="61.272738" lon="12.261594">
        <ele>476.455</ele>
        <time>1970-01-01T01:00:00Z</time>
      </trkpt>
      <trkpt lat="61.272648" lon="12.261629">
        <ele>476.636</ele>
        <time>1970-01-01T01:00:00Z</time>
      </trkpt>
      <trkpt lat="61.272553" lon="12.261663">
        <ele>477.182</ele>
        <time>1970-01-01T01:00:00Z</time>
      </trkpt>
      <trkpt lat="61.272431" lon="12.261715">
        <ele>477.727</ele>
        <time>1970-01-01T01:00:00Z</time>
      </trkpt>
      <trkpt lat="61.272329" lon="12.261761">
        <ele>478.091</ele>
        <time>1970-01-01T01:00:00Z</time>
      </trkpt>
      <trkpt lat="61.272225" lon="12.261774">
        <ele>478.455</ele>
        <time>1970-01-01T01:00:00Z</time>
      </trkpt>
      <trkpt lat="61.272122" lon="12.261822">
        <ele>478.455</ele>
        <time>1970-01-01T01:00:00Z</time>
      </trkpt>
      <trkpt lat="61.27203" lon="12.261867">
        <ele>478.455</ele>
        <time>1970-01-01T01:00:00Z</time>
      </trkpt>
      <trkpt lat="61.271941" lon="12.261925">
        <ele>478.455</ele>
        <time>1970-01-01T01:00:00Z</time>
      </trkpt>
      <trkpt lat="61.271822" lon="12.262021">
        <ele>478.455</ele>
        <time>1970-01-01T01:00:00Z</time>
      </trkpt>
      <trkpt lat="61.271739" lon="12.262096">
        <ele>478.545</ele>
        <time>1970-01-01T01:00:00Z</time>
      </trkpt>
      <trkpt lat="61.271634" lon="12.262172">
        <ele>478.636</ele>
        <time>1970-01-01T01:00:00Z</time>
      </trkpt>
      <trkpt lat="61.271526" lon="12.262191">
        <ele>478.727</ele>
        <time>1970-01-01T01:00:00Z</time>
      </trkpt>
      <trkpt lat="61.271422" lon="12.262194">
        <ele>478.455</ele>
        <time>1970-01-01T01:00:00Z</time>
      </trkpt>
      <trkpt lat="61.271329" lon="12.262201">
        <ele>478.182</ele>
        <time>1970-01-01T01:00:00Z</time>
      </trkpt>
      <trkpt lat="61.271225" lon="12.26222">
        <ele>477.909</ele>
        <time>1970-01-01T01:00:00Z</time>
      </trkpt>
      <trkpt lat="61.271118" lon="12.26226">
        <ele>477.636</ele>
        <time>1970-01-01T01:00:00Z</time>
      </trkpt>
      <trkpt lat="61.271023" lon="12.262242">
        <ele>477.727</ele>
        <time>1970-01-01T01:00:00Z</time>
      </trkpt>
      <trkpt lat="61.270928" lon="12.262226">
        <ele>478.182</ele>
        <time>1970-01-01T01:00:00Z</time>
      </trkpt>
      <trkpt lat="61.270825" lon="12.262285">
        <ele>478.636</ele>
        <time>1970-01-01T01:00:00Z</time>
      </trkpt>
      <trkpt lat="61.270724" lon="12.262294">
        <ele>479.091</ele>
        <time>1970-01-01T01:00:00Z</time>
      </trkpt>
      <trkpt lat="61.270633" lon="12.262311">
        <ele>479.455</ele>
        <time>1970-01-01T01:00:00Z</time>
      </trkpt>
      <trkpt lat="61.270537" lon="12.262314">
        <ele>479.818</ele>
        <time>1970-01-01T01:00:00Z</time>
      </trkpt>
      <trkpt lat="61.270427" lon="12.262354">
        <ele>480.182</ele>
        <time>1970-01-01T01:00:00Z</time>
      </trkpt>
      <trkpt lat="61.270316" lon="12.262362">
        <ele>480.545</ele>
        <time>1970-01-01T01:00:00Z</time>
      </trkpt>
      <trkpt lat="61.270203" lon="12.262345">
        <ele>480.909</ele>
        <time>1970-01-01T01:00:00Z</time>
      </trkpt>
      <trkpt lat="61.270088" lon="12.262368">
        <ele>481.818</ele>
        <time>1970-01-01T01:00:00Z</time>
      </trkpt>
      <trkpt lat="61.269992" lon="12.262439">
        <ele>482.727</ele>
        <time>1970-01-01T01:00:00Z</time>
      </trkpt>
      <trkpt lat="61.269903" lon="12.262542">
        <ele>483.636</ele>
        <time>1970-01-01T01:00:00Z</time>
      </trkpt>
      <trkpt lat="61.269774" lon="12.26251">
        <ele>484.182</ele>
        <time>1970-01-01T01:00:00Z</time>
      </trkpt>
      <trkpt lat="61.269684" lon="12.262532">
        <ele>484.727</ele>
        <time>1970-01-01T01:00:00Z</time>
      </trkpt>
      <trkpt lat="61.269588" lon="12.262618">
        <ele>485.273</ele>
        <time>1970-01-01T01:00:00Z</time>
      </trkpt>
      <trkpt lat="61.269493" lon="12.262663">
        <ele>485.818</ele>
        <time>1970-01-01T01:00:00Z</time>
      </trkpt>
      <trkpt lat="61.269394" lon="12.262692">
        <ele>486.364</ele>
        <time>1970-01-01T01:00:00Z</time>
      </trkpt>
      <trkpt lat="61.269293" lon="12.262706">
        <ele>487.273</ele>
        <time>1970-01-01T01:00:00Z</time>
      </trkpt>
      <trkpt lat="61.269191" lon="12.262726">
        <ele>488.182</ele>
        <time>1970-01-01T01:00:00Z</time>
      </trkpt>
      <trkpt lat="61.269099" lon="12.262744">
        <ele>489.091</ele>
        <time>1970-01-01T01:00:00Z</time>
      </trkpt>
      <trkpt lat="61.268981" lon="12.262724">
        <ele>489.455</ele>
        <time>1970-01-01T01:00:00Z</time>
      </trkpt>
      <trkpt lat="61.268865" lon="12.262731">
        <ele>489.818</ele>
        <time>1970-01-01T01:00:00Z</time>
      </trkpt>
      <trkpt lat="61.268757" lon="12.262738">
        <ele>490.182</ele>
        <time>1970-01-01T01:00:00Z</time>
      </trkpt>
      <trkpt lat="61.268658" lon="12.262705">
        <ele>490.545</ele>
        <time>1970-01-01T01:00:00Z</time>
      </trkpt>
      <trkpt lat="61.268566" lon="12.262691">
        <ele>490.909</ele>
        <time>1970-01-01T01:00:00Z</time>
      </trkpt>
      <trkpt lat="61.268475" lon="12.262631">
        <ele>491.455</ele>
        <time>1970-01-01T01:00:00Z</time>
      </trkpt>
      <trkpt lat="61.26837" lon="12.262599">
        <ele>492</ele>
        <time>1970-01-01T01:00:00Z</time>
      </trkpt>
      <trkpt lat="61.268277" lon="12.262576">
        <ele>492.545</ele>
        <time>1970-01-01T01:00:00Z</time>
      </trkpt>
      <trkpt lat="61.268169" lon="12.262527">
        <ele>492.727</ele>
        <time>1970-01-01T01:00:00Z</time>
      </trkpt>
      <trkpt lat="61.26807" lon="12.262438">
        <ele>492.909</ele>
        <time>1970-01-01T01:00:00Z</time>
      </trkpt>
      <trkpt lat="61.267968" lon="12.262404">
        <ele>493.091</ele>
        <time>1970-01-01T01:00:00Z</time>
      </trkpt>
      <trkpt lat="61.267873" lon="12.262434">
        <ele>493.273</ele>
        <time>1970-01-01T01:00:00Z</time>
      </trkpt>
      <trkpt lat="61.267761" lon="12.26235">
        <ele>493.455</ele>
        <time>1970-01-01T01:00:00Z</time>
      </trkpt>
      <trkpt lat="61.267653" lon="12.262279">
        <ele>493.636</ele>
        <time>1970-01-01T01:00:00Z</time>
      </trkpt>
      <trkpt lat="61.267545" lon="12.262235">
        <ele>494.182</ele>
        <time>1970-01-01T01:00:00Z</time>
      </trkpt>
      <trkpt lat="61.267438" lon="12.262199">
        <ele>494.727</ele>
        <time>1970-01-01T01:00:00Z</time>
      </trkpt>
      <trkpt lat="61.26733" lon="12.26216">
        <ele>495.091</ele>
        <time>1970-01-01T01:00:00Z</time>
      </trkpt>
      <trkpt lat="61.267238" lon="12.262212">
        <ele>495.455</ele>
        <time>1970-01-01T01:00:00Z</time>
      </trkpt>
      <trkpt lat="61.267148" lon="12.262223">
        <ele>495.818</ele>
        <time>1970-01-01T01:00:00Z</time>
      </trkpt>
      <trkpt lat="61.267081" lon="12.262361">
        <ele>496.182</ele>
        <time>1970-01-01T01:00:00Z</time>
      </trkpt>
      <trkpt lat="61.266989" lon="12.26237">
        <ele>496.545</ele>
        <time>1970-01-01T01:00:00Z</time>
      </trkpt>
      <trkpt lat="61.266895" lon="12.262411">
        <ele>496.909</ele>
        <time>1970-01-01T01:00:00Z</time>
      </trkpt>
      <trkpt lat="61.266797" lon="12.262449">
        <ele>497.273</ele>
        <time>1970-01-01T01:00:00Z</time>
      </trkpt>
      <trkpt lat="61.266704" lon="12.26248">
        <ele>498</ele>
        <time>1970-01-01T01:00:00Z</time>
      </trkpt>
      <trkpt lat="61.266612" lon="12.262536">
        <ele>498.727</ele>
        <time>1970-01-01T01:00:00Z</time>
      </trkpt>
      <trkpt lat="61.266527" lon="12.262597">
        <ele>499.091</ele>
        <time>1970-01-01T01:00:00Z</time>
      </trkpt>
      <trkpt lat="61.266437" lon="12.262628">
        <ele>499.364</ele>
        <time>1970-01-01T01:00:00Z</time>
      </trkpt>
      <trkpt lat="61.266341" lon="12.262655">
        <ele>499.636</ele>
        <time>1970-01-01T01:00:00Z</time>
      </trkpt>
      <trkpt lat="61.266248" lon="12.262695">
        <ele>499.909</ele>
        <time>1970-01-01T01:00:00Z</time>
      </trkpt>
      <trkpt lat="61.266152" lon="12.262785">
        <ele>500.182</ele>
        <time>1970-01-01T01:00:00Z</time>
      </trkpt>
      <trkpt lat="61.266077" lon="12.262885">
        <ele>500.455</ele>
        <time>1970-01-01T01:00:00Z</time>
      </trkpt>
      <trkpt lat="61.265988" lon="12.263029">
        <ele>500.727</ele>
        <time>1970-01-01T01:00:00Z</time>
      </trkpt>
      <trkpt lat="61.265916" lon="12.263175">
        <ele>500.818</ele>
        <time>1970-01-01T01:00:00Z</time>
      </trkpt>
      <trkpt lat="61.265866" lon="12.263335">
        <ele>500.909</ele>
        <time>1970-01-01T01:00:00Z</time>
      </trkpt>
      <trkpt lat="61.265804" lon="12.263494">
        <ele>500.636</ele>
        <time>1970-01-01T01:00:00Z</time>
      </trkpt>
      <trkpt lat="61.265739" lon="12.26363">
        <ele>500.455</ele>
        <time>1970-01-01T01:00:00Z</time>
      </trkpt>
      <trkpt lat="61.265675" lon="12.263765">
        <ele>500.273</ele>
        <time>1970-01-01T01:00:00Z</time>
      </trkpt>
      <trkpt lat="61.265606" lon="12.263905">
        <ele>500.182</ele>
        <time>1970-01-01T01:00:00Z</time>
      </trkpt>
      <trkpt lat="61.265536" lon="12.264055">
        <ele>500</ele>
        <time>1970-01-01T01:00:00Z</time>
      </trkpt>
      <trkpt lat="61.265451" lon="12.264216">
        <ele>499.818</ele>
        <time>1970-01-01T01:00:00Z</time>
      </trkpt>
      <trkpt lat="61.265387" lon="12.264374">
        <ele>499.636</ele>
        <time>1970-01-01T01:00:00Z</time>
      </trkpt>
      <trkpt lat="61.265314" lon="12.264526">
        <ele>499.455</ele>
        <time>1970-01-01T01:00:00Z</time>
      </trkpt>
      <trkpt lat="61.265381" lon="12.264398">
        <ele>499.455</ele>
        <time>1970-01-01T01:00:00Z</time>
      </trkpt>
      <trkpt lat="61.265451" lon="12.264225">
        <ele>499.636</ele>
        <time>1970-01-01T01:00:00Z</time>
      </trkpt>
      <trkpt lat="61.265505" lon="12.264059">
        <ele>499.818</ele>
        <time>1970-01-01T01:00:00Z</time>
      </trkpt>
      <trkpt lat="61.265578" lon="12.263922">
        <ele>500</ele>
        <time>1970-01-01T01:00:00Z</time>
      </trkpt>
      <trkpt lat="61.265658" lon="12.263779">
        <ele>500.091</ele>
        <time>1970-01-01T01:00:00Z</time>
      </trkpt>
      <trkpt lat="61.265735" lon="12.263621">
        <ele>500.182</ele>
        <time>1970-01-01T01:00:00Z</time>
      </trkpt>
      <trkpt lat="61.265809" lon="12.263493">
        <ele>500.364</ele>
        <time>1970-01-01T01:00:00Z</time>
      </trkpt>
      <trkpt lat="61.265873" lon="12.263327">
        <ele>500.273</ele>
        <time>1970-01-01T01:00:00Z</time>
      </trkpt>
      <trkpt lat="61.265942" lon="12.263181">
        <ele>500.182</ele>
        <time>1970-01-01T01:00:00Z</time>
      </trkpt>
      <trkpt lat="61.266014" lon="12.263065">
        <ele>500.091</ele>
        <time>1970-01-01T01:00:00Z</time>
      </trkpt>
      <trkpt lat="61.266107" lon="12.262974">
        <ele>500</ele>
        <time>1970-01-01T01:00:00Z</time>
      </trkpt>
      <trkpt lat="61.266192" lon="12.262853">
        <ele>499.727</ele>
        <time>1970-01-01T01:00:00Z</time>
      </trkpt>
      <trkpt lat="61.266269" lon="12.262741">
        <ele>499.455</ele>
        <time>1970-01-01T01:00:00Z</time>
      </trkpt>
      <trkpt lat="61.266344" lon="12.262577">
        <ele>499.182</ele>
        <time>1970-01-01T01:00:00Z</time>
      </trkpt>
      <trkpt lat="61.266441" lon="12.262481">
        <ele>498.909</ele>
        <time>1970-01-01T01:00:00Z</time>
      </trkpt>
      <trkpt lat="61.26653" lon="12.262437">
        <ele>498.273</ele>
        <time>1970-01-01T01:00:00Z</time>
      </trkpt>
      <trkpt lat="61.266642" lon="12.262437">
        <ele>497.636</ele>
        <time>1970-01-01T01:00:00Z</time>
      </trkpt>
      <trkpt lat="61.266755" lon="12.262392">
        <ele>496.909</ele>
        <time>1970-01-01T01:00:00Z</time>
      </trkpt>
      <trkpt lat="61.266873" lon="12.262382">
        <ele>496.545</ele>
        <time>1970-01-01T01:00:00Z</time>
      </trkpt>
      <trkpt lat="61.266998" lon="12.262319">
        <ele>496.182</ele>
        <time>1970-01-01T01:00:00Z</time>
      </trkpt>
      <trkpt lat="61.267093" lon="12.262331">
        <ele>495.818</ele>
        <time>1970-01-01T01:00:00Z</time>
      </trkpt>
      <trkpt lat="61.267185" lon="12.262307">
        <ele>495.455</ele>
        <time>1970-01-01T01:00:00Z</time>
      </trkpt>
      <trkpt lat="61.267272" lon="12.262362">
        <ele>495.091</ele>
        <time>1970-01-01T01:00:00Z</time>
      </trkpt>
      <trkpt lat="61.267387" lon="12.262397">
        <ele>494.727</ele>
        <time>1970-01-01T01:00:00Z</time>
      </trkpt>
      <trkpt lat="61.267485" lon="12.262446">
        <ele>494.182</ele>
        <time>1970-01-01T01:00:00Z</time>
      </trkpt>
      <trkpt lat="61.26759" lon="12.262517">
        <ele>493.636</ele>
        <time>1970-01-01T01:00:00Z</time>
      </trkpt>
      <trkpt lat="61.267707" lon="12.262519">
        <ele>493.455</ele>
        <time>1970-01-01T01:00:00Z</time>
      </trkpt>
      <trkpt lat="61.267822" lon="12.262528">
        <ele>493.273</ele>
        <time>1970-01-01T01:00:00Z</time>
      </trkpt>
      <trkpt lat="61.267936" lon="12.262549">
        <ele>493.091</ele>
        <time>1970-01-01T01:00:00Z</time>
      </trkpt>
      <trkpt lat="61.268036" lon="12.262579">
        <ele>492.909</ele>
        <time>1970-01-01T01:00:00Z</time>
      </trkpt>
      <trkpt lat="61.268125" lon="12.262648">
        <ele>492.727</ele>
        <time>1970-01-01T01:00:00Z</time>
      </trkpt>
      <trkpt lat="61.268241" lon="12.262708">
        <ele>492.545</ele>
        <time>1970-01-01T01:00:00Z</time>
      </trkpt>
      <trkpt lat="61.268334" lon="12.262696">
        <ele>492</ele>
        <time>1970-01-01T01:00:00Z</time>
      </trkpt>
      <trkpt lat="61.268444" lon="12.262708">
        <ele>491.455</ele>
        <time>1970-01-01T01:00:00Z</time>
      </trkpt>
      <trkpt lat="61.268564" lon="12.26272">
        <ele>490.909</ele>
        <time>1970-01-01T01:00:00Z</time>
      </trkpt>
      <trkpt lat="61.268669" lon="12.262701">
        <ele>490.545</ele>
        <time>1970-01-01T01:00:00Z</time>
      </trkpt>
      <trkpt lat="61.268792" lon="12.262735">
        <ele>490.182</ele>
        <time>1970-01-01T01:00:00Z</time>
      </trkpt>
      <trkpt lat="61.268906" lon="12.26281">
        <ele>489.818</ele>
        <time>1970-01-01T01:00:00Z</time>
      </trkpt>
      <trkpt lat="61.26901" lon="12.262829">
        <ele>489.455</ele>
        <time>1970-01-01T01:00:00Z</time>
      </trkpt>
      <trkpt lat="61.269125" lon="12.262824">
        <ele>489.091</ele>
        <time>1970-01-01T01:00:00Z</time>
      </trkpt>
      <trkpt lat="61.269239" lon="12.262816">
        <ele>488.182</ele>
        <time>1970-01-01T01:00:00Z</time>
      </trkpt>
      <trkpt lat="61.269328" lon="12.262759">
        <ele>487.273</ele>
        <time>1970-01-01T01:00:00Z</time>
      </trkpt>
      <trkpt lat="61.26943" lon="12.262708">
        <ele>486.364</ele>
        <time>1970-01-01T01:00:00Z</time>
      </trkpt>
      <trkpt lat="61.269519" lon="12.262607">
        <ele>485.818</ele>
        <time>1970-01-01T01:00:00Z</time>
      </trkpt>
      <trkpt lat="61.269621" lon="12.262536">
        <ele>485.273</ele>
        <time>1970-01-01T01:00:00Z</time>
      </trkpt>
      <trkpt lat="61.269708" lon="12.262481">
        <ele>484.727</ele>
        <time>1970-01-01T01:00:00Z</time>
      </trkpt>
      <trkpt lat="61.269809" lon="12.262439">
        <ele>484.182</ele>
        <time>1970-01-01T01:00:00Z</time>
      </trkpt>
      <trkpt lat="61.269929" lon="12.262423">
        <ele>483.273</ele>
        <time>1970-01-01T01:00:00Z</time>
      </trkpt>
      <trkpt lat="61.270048" lon="12.262415">
        <ele>482.364</ele>
        <time>1970-01-01T01:00:00Z</time>
      </trkpt>
      <trkpt lat="61.270149" lon="12.262394">
        <ele>481.455</ele>
        <time>1970-01-01T01:00:00Z</time>
      </trkpt>
      <trkpt lat="61.270257" lon="12.262384">
        <ele>480.545</ele>
        <time>1970-01-01T01:00:00Z</time>
      </trkpt>
      <trkpt lat="61.270363" lon="12.262391">
        <ele>480.182</ele>
        <time>1970-01-01T01:00:00Z</time>
      </trkpt>
      <trkpt lat="61.270458" lon="12.262384">
        <ele>479.818</ele>
        <time>1970-01-01T01:00:00Z</time>
      </trkpt>
      <trkpt lat="61.270564" lon="12.262337">
        <ele>479.455</ele>
        <time>1970-01-01T01:00:00Z</time>
      </trkpt>
      <trkpt lat="61.270678" lon="12.262314">
        <ele>479.091</ele>
        <time>1970-01-01T01:00:00Z</time>
      </trkpt>
      <trkpt lat="61.270779" lon="12.262303">
        <ele>478.636</ele>
        <time>1970-01-01T01:00:00Z</time>
      </trkpt>
      <trkpt lat="61.270889" lon="12.262299">
        <ele>478.182</ele>
        <time>1970-01-01T01:00:00Z</time>
      </trkpt>
      <trkpt lat="61.27101" lon="12.262268">
        <ele>478.091</ele>
        <time>1970-01-01T01:00:00Z</time>
      </trkpt>
      <trkpt lat="61.271119" lon="12.262226">
        <ele>478.364</ele>
        <time>1970-01-01T01:00:00Z</time>
      </trkpt>
      <trkpt lat="61.271227" lon="12.262191">
        <ele>478.636</ele>
        <time>1970-01-01T01:00:00Z</time>
      </trkpt>
      <trkpt lat="61.271323" lon="12.262162">
        <ele>478.909</ele>
        <time>1970-01-01T01:00:00Z</time>
      </trkpt>
      <trkpt lat="61.271415" lon="12.26214">
        <ele>479.182</ele>
        <time>1970-01-01T01:00:00Z</time>
      </trkpt>
      <trkpt lat="61.27152" lon="12.26209">
        <ele>479.455</ele>
        <time>1970-01-01T01:00:00Z</time>
      </trkpt>
      <trkpt lat="61.27163" lon="12.262088">
        <ele>479.364</ele>
        <time>1970-01-01T01:00:00Z</time>
      </trkpt>
      <trkpt lat="61.271741" lon="12.262096">
        <ele>479.273</ele>
        <time>1970-01-01T01:00:00Z</time>
      </trkpt>
      <trkpt lat="61.271858" lon="12.262095">
        <ele>479.182</ele>
        <time>1970-01-01T01:00:00Z</time>
      </trkpt>
      <trkpt lat="61.271974" lon="12.262013">
        <ele>479.182</ele>
        <time>1970-01-01T01:00:00Z</time>
      </trkpt>
      <trkpt lat="61.272087" lon="12.261952">
        <ele>479.182</ele>
        <time>1970-01-01T01:00:00Z</time>
      </trkpt>
      <trkpt lat="61.272182" lon="12.261932">
        <ele>478.818</ele>
        <time>1970-01-01T01:00:00Z</time>
      </trkpt>
      <trkpt lat="61.272272" lon="12.261908">
        <ele>478.455</ele>
        <time>1970-01-01T01:00:00Z</time>
      </trkpt>
      <trkpt lat="61.272388" lon="12.26187">
        <ele>478.091</ele>
        <time>1970-01-01T01:00:00Z</time>
      </trkpt>
      <trkpt lat="61.272495" lon="12.261777">
        <ele>477.545</ele>
        <time>1970-01-01T01:00:00Z</time>
      </trkpt>
      <trkpt lat="61.272593" lon="12.261687">
        <ele>477</ele>
        <time>1970-01-01T01:00:00Z</time>
      </trkpt>
      <trkpt lat="61.272698" lon="12.261613">
        <ele>476.455</ele>
        <time>1970-01-01T01:00:00Z</time>
      </trkpt>
      <trkpt lat="61.27282" lon="12.261551">
        <ele>476.273</ele>
        <time>1970-01-01T01:00:00Z</time>
      </trkpt>
      <trkpt lat="61.272919" lon="12.261508">
        <ele>476.091</ele>
        <time>1970-01-01T01:00:00Z</time>
      </trkpt>
      <trkpt lat="61.273034" lon="12.261531">
        <ele>475.909</ele>
        <time>1970-01-01T01:00:00Z</time>
      </trkpt>
      <trkpt lat="61.27313" lon="12.261537">
        <ele>475.727</ele>
        <time>1970-01-01T01:00:00Z</time>
      </trkpt>
      <trkpt lat="61.273235" lon="12.261519">
        <ele>475.364</ele>
        <time>1970-01-01T01:00:00Z</time>
      </trkpt>
      <trkpt lat="61.273351" lon="12.261483">
        <ele>475</ele>
        <time>1970-01-01T01:00:00Z</time>
      </trkpt>
      <trkpt lat="61.273467" lon="12.261432">
        <ele>474.636</ele>
        <time>1970-01-01T01:00:00Z</time>
      </trkpt>
      <trkpt lat="61.273592" lon="12.261377">
        <ele>474.273</ele>
        <time>1970-01-01T01:00:00Z</time>
      </trkpt>
      <trkpt lat="61.273705" lon="12.261322">
        <ele>474.091</ele>
        <time>1970-01-01T01:00:00Z</time>
      </trkpt>
      <trkpt lat="61.273808" lon="12.26129">
        <ele>473.909</ele>
        <time>1970-01-01T01:00:00Z</time>
      </trkpt>
      <trkpt lat="61.2739" lon="12.261274">
        <ele>473.727</ele>
        <time>1970-01-01T01:00:00Z</time>
      </trkpt>
      <trkpt lat="61.273993" lon="12.261279">
        <ele>473.545</ele>
        <time>1970-01-01T01:00:00Z</time>
      </trkpt>
      <trkpt lat="61.274108" lon="12.261281">
        <ele>473.364</ele>
        <time>1970-01-01T01:00:00Z</time>
      </trkpt>
      <trkpt lat="61.274207" lon="12.261238">
        <ele>472.727</ele>
        <time>1970-01-01T01:00:00Z</time>
      </trkpt>
      <trkpt lat="61.274302" lon="12.261178">
        <ele>472.091</ele>
        <time>1970-01-01T01:00:00Z</time>
      </trkpt>
      <trkpt lat="61.2744" lon="12.261138">
        <ele>471.636</ele>
        <time>1970-01-01T01:00:00Z</time>
      </trkpt>
      <trkpt lat="61.274497" lon="12.261103">
        <ele>471.182</ele>
        <time>1970-01-01T01:00:00Z</time>
      </trkpt>
      <trkpt lat="61.274605" lon="12.261025">
        <ele>470.727</ele>
        <time>1970-01-01T01:00:00Z</time>
      </trkpt>
      <trkpt lat="61.274693" lon="12.260934">
        <ele>470.273</ele>
        <time>1970-01-01T01:00:00Z</time>
      </trkpt>
      <trkpt lat="61.274779" lon="12.260877">
        <ele>469.818</ele>
        <time>1970-01-01T01:00:00Z</time>
      </trkpt>
      <trkpt lat="61.274868" lon="12.260842">
        <ele>469.364</ele>
        <time>1970-01-01T01:00:00Z</time>
      </trkpt>
      <trkpt lat="61.274966" lon="12.260822">
        <ele>468.727</ele>
        <time>1970-01-01T01:00:00Z</time>
      </trkpt>
      <trkpt lat="61.275081" lon="12.260796">
        <ele>468.091</ele>
        <time>1970-01-01T01:00:00Z</time>
      </trkpt>
      <trkpt lat="61.275178" lon="12.260758">
        <ele>467.818</ele>
        <time>1970-01-01T01:00:00Z</time>
      </trkpt>
      <trkpt lat="61.275285" lon="12.260699">
        <ele>468</ele>
        <time>1970-01-01T01:00:00Z</time>
      </trkpt>
      <trkpt lat="61.2754" lon="12.260652">
        <ele>468.182</ele>
        <time>1970-01-01T01:00:00Z</time>
      </trkpt>
      <trkpt lat="61.2755" lon="12.260628">
        <ele>468.364</ele>
        <time>1970-01-01T01:00:00Z</time>
      </trkpt>
      <trkpt lat="61.275657" lon="12.260519">
        <ele>468.545</ele>
        <time>1970-01-01T01:00:00Z</time>
      </trkpt>
      <trkpt lat="61.275771" lon="12.260465">
        <ele>468.364</ele>
        <time>1970-01-01T01:00:00Z</time>
      </trkpt>
      <trkpt lat="61.275883" lon="12.260428">
        <ele>468.182</ele>
        <time>1970-01-01T01:00:00Z</time>
      </trkpt>
      <trkpt lat="61.275978" lon="12.26039">
        <ele>468</ele>
        <time>1970-01-01T01:00:00Z</time>
      </trkpt>
      <trkpt lat="61.276083" lon="12.260356">
        <ele>467.818</ele>
        <time>1970-01-01T01:00:00Z</time>
      </trkpt>
      <trkpt lat="61.276185" lon="12.260316">
        <ele>467.818</ele>
        <time>1970-01-01T01:00:00Z</time>
      </trkpt>
      <trkpt lat="61.276293" lon="12.260302">
        <ele>467.818</ele>
        <time>1970-01-01T01:00:00Z</time>
      </trkpt>
      <trkpt lat="61.276385" lon="12.260278">
        <ele>467.455</ele>
        <time>1970-01-01T01:00:00Z</time>
      </trkpt>
      <trkpt lat="61.276487" lon="12.260248">
        <ele>467.091</ele>
        <time>1970-01-01T01:00:00Z</time>
      </trkpt>
      <trkpt lat="61.276589" lon="12.260202">
        <ele>466.455</ele>
        <time>1970-01-01T01:00:00Z</time>
      </trkpt>
      <trkpt lat="61.276676" lon="12.260146">
        <ele>465.818</ele>
        <time>1970-01-01T01:00:00Z</time>
      </trkpt>
      <trkpt lat="61.276782" lon="12.260122">
        <ele>465.182</ele>
        <time>1970-01-01T01:00:00Z</time>
      </trkpt>
      <trkpt lat="61.276883" lon="12.260115">
        <ele>464.909</ele>
        <time>1970-01-01T01:00:00Z</time>
      </trkpt>
      <trkpt lat="61.277001" lon="12.260108">
        <ele>464.636</ele>
        <time>1970-01-01T01:00:00Z</time>
      </trkpt>
      <trkpt lat="61.277113" lon="12.26007">
        <ele>464.364</ele>
        <time>1970-01-01T01:00:00Z</time>
      </trkpt>
      <trkpt lat="61.277216" lon="12.260007">
        <ele>464.091</ele>
        <time>1970-01-01T01:00:00Z</time>
      </trkpt>
      <trkpt lat="61.277332" lon="12.259928">
        <ele>463.818</ele>
        <time>1970-01-01T01:00:00Z</time>
      </trkpt>
      <trkpt lat="61.27744" lon="12.259869">
        <ele>463.727</ele>
        <time>1970-01-01T01:00:00Z</time>
      </trkpt>
      <trkpt lat="61.277559" lon="12.259838">
        <ele>463.182</ele>
        <time>1970-01-01T01:00:00Z</time>
      </trkpt>
      <trkpt lat="61.277662" lon="12.259791">
        <ele>462.636</ele>
        <time>1970-01-01T01:00:00Z</time>
      </trkpt>
      <trkpt lat="61.277768" lon="12.259732">
        <ele>462.364</ele>
        <time>1970-01-01T01:00:00Z</time>
      </trkpt>
      <trkpt lat="61.27786" lon="12.259673">
        <ele>462.091</ele>
        <time>1970-01-01T01:00:00Z</time>
      </trkpt>
      <trkpt lat="61.277949" lon="12.259594">
        <ele>461.818</ele>
        <time>1970-01-01T01:00:00Z</time>
      </trkpt>
      <trkpt lat="61.278064" lon="12.259492">
        <ele>461.545</ele>
        <time>1970-01-01T01:00:00Z</time>
      </trkpt>
      <trkpt lat="61.278152" lon="12.259445">
        <ele>461.273</ele>
        <time>1970-01-01T01:00:00Z</time>
      </trkpt>
      <trkpt lat="61.278263" lon="12.259406">
        <ele>461</ele>
        <time>1970-01-01T01:00:00Z</time>
      </trkpt>
      <trkpt lat="61.278358" lon="12.259329">
        <ele>460.636</ele>
        <time>1970-01-01T01:00:00Z</time>
      </trkpt>
      <trkpt lat="61.278448" lon="12.259225">
        <ele>460.273</ele>
        <time>1970-01-01T01:00:00Z</time>
      </trkpt>
      <trkpt lat="61.278537" lon="12.25917">
        <ele>459.909</ele>
        <time>1970-01-01T01:00:00Z</time>
      </trkpt>
      <trkpt lat="61.278627" lon="12.259125">
        <ele>460</ele>
        <time>1970-01-01T01:00:00Z</time>
      </trkpt>
      <trkpt lat="61.278715" lon="12.259056">
        <ele>460.091</ele>
        <time>1970-01-01T01:00:00Z</time>
      </trkpt>
      <trkpt lat="61.278802" lon="12.25899">
        <ele>460.182</ele>
        <time>1970-01-01T01:00:00Z</time>
      </trkpt>
      <trkpt lat="61.278896" lon="12.258924">
        <ele>460.273</ele>
        <time>1970-01-01T01:00:00Z</time>
      </trkpt>
      <trkpt lat="61.278994" lon="12.258825">
        <ele>460.364</ele>
        <time>1970-01-01T01:00:00Z</time>
      </trkpt>
      <trkpt lat="61.27908" lon="12.258722">
        <ele>460.455</ele>
        <time>1970-01-01T01:00:00Z</time>
      </trkpt>
      <trkpt lat="61.279174" lon="12.258638">
        <ele>460.545</ele>
        <time>1970-01-01T01:00:00Z</time>
      </trkpt>
      <trkpt lat="61.27926" lon="12.258561">
        <ele>460.636</ele>
        <time>1970-01-01T01:00:00Z</time>
      </trkpt>
      <trkpt lat="61.279343" lon="12.258482">
        <ele>461</ele>
        <time>1970-01-01T01:00:00Z</time>
      </trkpt>
      <trkpt lat="61.279443" lon="12.258415">
        <ele>461.364</ele>
        <time>1970-01-01T01:00:00Z</time>
      </trkpt>
      <trkpt lat="61.279543" lon="12.258325">
        <ele>461.545</ele>
        <time>1970-01-01T01:00:00Z</time>
      </trkpt>
      <trkpt lat="61.27963" lon="12.258238">
        <ele>461.727</ele>
        <time>1970-01-01T01:00:00Z</time>
      </trkpt>
      <trkpt lat="61.279732" lon="12.258097">
        <ele>461.909</ele>
        <time>1970-01-01T01:00:00Z</time>
      </trkpt>
      <trkpt lat="61.279829" lon="12.258011">
        <ele>462.091</ele>
        <time>1970-01-01T01:00:00Z</time>
      </trkpt>
      <trkpt lat="61.27992" lon="12.257986">
        <ele>462.273</ele>
        <time>1970-01-01T01:00:00Z</time>
      </trkpt>
      <trkpt lat="61.280021" lon="12.257932">
        <ele>462.273</ele>
        <time>1970-01-01T01:00:00Z</time>
      </trkpt>
      <trkpt lat="61.280111" lon="12.257847">
        <ele>462.273</ele>
        <time>1970-01-01T01:00:00Z</time>
      </trkpt>
      <trkpt lat="61.280216" lon="12.257712">
        <ele>462.273</ele>
        <time>1970-01-01T01:00:00Z</time>
      </trkpt>
      <trkpt lat="61.280319" lon="12.257621">
        <ele>462.273</ele>
        <time>1970-01-01T01:00:00Z</time>
      </trkpt>
      <trkpt lat="61.280405" lon="12.25756">
        <ele>462.273</ele>
        <time>1970-01-01T01:00:00Z</time>
      </trkpt>
      <trkpt lat="61.280506" lon="12.257505">
        <ele>462.273</ele>
        <time>1970-01-01T01:00:00Z</time>
      </trkpt>
      <trkpt lat="61.280621" lon="12.25746">
        <ele>462.273</ele>
        <time>1970-01-01T01:00:00Z</time>
      </trkpt>
      <trkpt lat="61.280727" lon="12.257385">
        <ele>462.273</ele>
        <time>1970-01-01T01:00:00Z</time>
      </trkpt>
      <trkpt lat="61.280824" lon="12.257272">
        <ele>462.273</ele>
        <time>1970-01-01T01:00:00Z</time>
      </trkpt>
      <trkpt lat="61.280902" lon="12.257133">
        <ele>462.182</ele>
        <time>1970-01-01T01:00:00Z</time>
      </trkpt>
      <trkpt lat="61.280993" lon="12.256954">
        <ele>462.091</ele>
        <time>1970-01-01T01:00:00Z</time>
      </trkpt>
      <trkpt lat="61.28108" lon="12.256791">
        <ele>462.182</ele>
        <time>1970-01-01T01:00:00Z</time>
      </trkpt>
      <trkpt lat="61.281149" lon="12.256655">
        <ele>462.273</ele>
        <time>1970-01-01T01:00:00Z</time>
      </trkpt>
      <trkpt lat="61.281219" lon="12.256501">
        <ele>462.364</ele>
        <time>1970-01-01T01:00:00Z</time>
      </trkpt>
      <trkpt lat="61.281283" lon="12.256333">
        <ele>462.455</ele>
        <time>1970-01-01T01:00:00Z</time>
      </trkpt>
      <trkpt lat="61.281366" lon="12.256244">
        <ele>462.364</ele>
        <time>1970-01-01T01:00:00Z</time>
      </trkpt>
      <trkpt lat="61.281462" lon="12.256142">
        <ele>462.273</ele>
        <time>1970-01-01T01:00:00Z</time>
      </trkpt>
      <trkpt lat="61.281541" lon="12.25604">
        <ele>462.182</ele>
        <time>1970-01-01T01:00:00Z</time>
      </trkpt>
      <trkpt lat="61.281637" lon="12.25593">
        <ele>461.636</ele>
        <time>1970-01-01T01:00:00Z</time>
      </trkpt>
      <trkpt lat="61.281725" lon="12.255854">
        <ele>461.091</ele>
        <time>1970-01-01T01:00:00Z</time>
      </trkpt>
      <trkpt lat="61.281829" lon="12.255803">
        <ele>460.636</ele>
        <time>1970-01-01T01:00:00Z</time>
      </trkpt>
      <trkpt lat="61.28194" lon="12.255758">
        <ele>460.182</ele>
        <time>1970-01-01T01:00:00Z</time>
      </trkpt>
      <trkpt lat="61.28204" lon="12.255692">
        <ele>459.727</ele>
        <time>1970-01-01T01:00:00Z</time>
      </trkpt>
      <trkpt lat="61.28213" lon="12.255646">
        <ele>459.364</ele>
        <time>1970-01-01T01:00:00Z</time>
      </trkpt>
      <trkpt lat="61.282235" lon="12.25562">
        <ele>459</ele>
        <time>1970-01-01T01:00:00Z</time>
      </trkpt>
      <trkpt lat="61.282335" lon="12.25556">
        <ele>458.636</ele>
        <time>1970-01-01T01:00:00Z</time>
      </trkpt>
      <trkpt lat="61.282438" lon="12.255481">
        <ele>458.273</ele>
        <time>1970-01-01T01:00:00Z</time>
      </trkpt>
      <trkpt lat="61.282551" lon="12.255418">
        <ele>457.636</ele>
        <time>1970-01-01T01:00:00Z</time>
      </trkpt>
      <trkpt lat="61.282648" lon="12.255384">
        <ele>457</ele>
        <time>1970-01-01T01:00:00Z</time>
      </trkpt>
      <trkpt lat="61.282751" lon="12.255344">
        <ele>456.818</ele>
        <time>1970-01-01T01:00:00Z</time>
      </trkpt>
      <trkpt lat="61.282863" lon="12.255276">
        <ele>456.636</ele>
        <time>1970-01-01T01:00:00Z</time>
      </trkpt>
      <trkpt lat="61.282956" lon="12.255225">
        <ele>456.455</ele>
        <time>1970-01-01T01:00:00Z</time>
      </trkpt>
      <trkpt lat="61.283047" lon="12.255179">
        <ele>456.273</ele>
        <time>1970-01-01T01:00:00Z</time>
      </trkpt>
      <trkpt lat="61.283155" lon="12.2551">
        <ele>456.091</ele>
        <time>1970-01-01T01:00:00Z</time>
      </trkpt>
      <trkpt lat="61.283253" lon="12.255003">
        <ele>456</ele>
        <time>1970-01-01T01:00:00Z</time>
      </trkpt>
      <trkpt lat="61.283357" lon="12.254901">
        <ele>455.818</ele>
        <time>1970-01-01T01:00:00Z</time>
      </trkpt>
      <trkpt lat="61.283452" lon="12.254822">
        <ele>455.636</ele>
        <time>1970-01-01T01:00:00Z</time>
      </trkpt>
      <trkpt lat="61.283545" lon="12.254735">
        <ele>455.455</ele>
        <time>1970-01-01T01:00:00Z</time>
      </trkpt>
      <trkpt lat="61.283643" lon="12.254664">
        <ele>455.545</ele>
        <time>1970-01-01T01:00:00Z</time>
      </trkpt>
      <trkpt lat="61.283747" lon="12.254589">
        <ele>455.636</ele>
        <time>1970-01-01T01:00:00Z</time>
      </trkpt>
      <trkpt lat="61.28384" lon="12.254488">
        <ele>455.727</ele>
        <time>1970-01-01T01:00:00Z</time>
      </trkpt>
      <trkpt lat="61.283938" lon="12.254404">
        <ele>455.818</ele>
        <time>1970-01-01T01:00:00Z</time>
      </trkpt>
      <trkpt lat="61.284026" lon="12.254346">
        <ele>455.909</ele>
        <time>1970-01-01T01:00:00Z</time>
      </trkpt>
      <trkpt lat="61.284117" lon="12.254324">
        <ele>456</ele>
        <time>1970-01-01T01:00:00Z</time>
      </trkpt>
      <trkpt lat="61.28422" lon="12.254257">
        <ele>456.091</ele>
        <time>1970-01-01T01:00:00Z</time>
      </trkpt>
      <trkpt lat="61.284312" lon="12.254149">
        <ele>456</ele>
        <time>1970-01-01T01:00:00Z</time>
      </trkpt>
      <trkpt lat="61.284403" lon="12.254059">
        <ele>456</ele>
        <time>1970-01-01T01:00:00Z</time>
      </trkpt>
      <trkpt lat="61.284493" lon="12.254001">
        <ele>456.273</ele>
        <time>1970-01-01T01:00:00Z</time>
      </trkpt>
      <trkpt lat="61.284581" lon="12.253957">
        <ele>456.545</ele>
        <time>1970-01-01T01:00:00Z</time>
      </trkpt>
      <trkpt lat="61.284675" lon="12.253932">
        <ele>456.818</ele>
        <time>1970-01-01T01:00:00Z</time>
      </trkpt>
      <trkpt lat="61.284774" lon="12.253876">
        <ele>457.091</ele>
        <time>1970-01-01T01:00:00Z</time>
      </trkpt>
      <trkpt lat="61.28488" lon="12.253819">
        <ele>457.364</ele>
        <time>1970-01-01T01:00:00Z</time>
      </trkpt>
      <trkpt lat="61.28498" lon="12.253765">
        <ele>457.455</ele>
        <time>1970-01-01T01:00:00Z</time>
      </trkpt>
      <trkpt lat="61.285093" lon="12.253707">
        <ele>457.545</ele>
        <time>1970-01-01T01:00:00Z</time>
      </trkpt>
      <trkpt lat="61.285183" lon="12.253643">
        <ele>457.636</ele>
        <time>1970-01-01T01:00:00Z</time>
      </trkpt>
      <trkpt lat="61.28529" lon="12.253581">
        <ele>457.727</ele>
        <time>1970-01-01T01:00:00Z</time>
      </trkpt>
      <trkpt lat="61.285382" lon="12.253532">
        <ele>457.818</ele>
        <time>1970-01-01T01:00:00Z</time>
      </trkpt>
      <trkpt lat="61.285508" lon="12.253432">
        <ele>457.909</ele>
        <time>1970-01-01T01:00:00Z</time>
      </trkpt>
      <trkpt lat="61.285594" lon="12.253372">
        <ele>457.727</ele>
        <time>1970-01-01T01:00:00Z</time>
      </trkpt>
      <trkpt lat="61.285681" lon="12.253294">
        <ele>457.545</ele>
        <time>1970-01-01T01:00:00Z</time>
      </trkpt>
      <trkpt lat="61.285783" lon="12.253211">
        <ele>457.182</ele>
        <time>1970-01-01T01:00:00Z</time>
      </trkpt>
      <trkpt lat="61.28589" lon="12.253126">
        <ele>457.091</ele>
        <time>1970-01-01T01:00:00Z</time>
      </trkpt>
      <trkpt lat="61.285997" lon="12.25306">
        <ele>457</ele>
        <time>1970-01-01T01:00:00Z</time>
      </trkpt>
      <trkpt lat="61.286091" lon="12.252999">
        <ele>457.091</ele>
        <time>1970-01-01T01:00:00Z</time>
      </trkpt>
      <trkpt lat="61.286185" lon="12.252974">
        <ele>457.182</ele>
        <time>1970-01-01T01:00:00Z</time>
      </trkpt>
      <trkpt lat="61.286294" lon="12.252953">
        <ele>457.273</ele>
        <time>1970-01-01T01:00:00Z</time>
      </trkpt>
      <trkpt lat="61.28641" lon="12.252913">
        <ele>457.364</ele>
        <time>1970-01-01T01:00:00Z</time>
      </trkpt>
      <trkpt lat="61.286523" lon="12.252867">
        <ele>457.455</ele>
        <time>1970-01-01T01:00:00Z</time>
      </trkpt>
      <trkpt lat="61.286635" lon="12.252815">
        <ele>457.545</ele>
        <time>1970-01-01T01:00:00Z</time>
      </trkpt>
      <trkpt lat="61.286728" lon="12.252768">
        <ele>457.273</ele>
        <time>1970-01-01T01:00:00Z</time>
      </trkpt>
      <trkpt lat="61.28682" lon="12.252715">
        <ele>457</ele>
        <time>1970-01-01T01:00:00Z</time>
      </trkpt>
      <trkpt lat="61.286911" lon="12.252617">
        <ele>456.909</ele>
        <time>1970-01-01T01:00:00Z</time>
      </trkpt>
      <trkpt lat="61.286998" lon="12.252544">
        <ele>456.818</ele>
        <time>1970-01-01T01:00:00Z</time>
      </trkpt>
      <trkpt lat="61.28708" lon="12.252463">
        <ele>456.727</ele>
        <time>1970-01-01T01:00:00Z</time>
      </trkpt>
      <trkpt lat="61.287157" lon="12.252345">
        <ele>456.636</ele>
        <time>1970-01-01T01:00:00Z</time>
      </trkpt>
      <trkpt lat="61.287247" lon="12.25223">
        <ele>456.545</ele>
        <time>1970-01-01T01:00:00Z</time>
      </trkpt>
      <trkpt lat="61.28734" lon="12.252145">
        <ele>456.455</ele>
        <time>1970-01-01T01:00:00Z</time>
      </trkpt>
      <trkpt lat="61.28742" lon="12.252039">
        <ele>456.364</ele>
        <time>1970-01-01T01:00:00Z</time>
      </trkpt>
      <trkpt lat="61.287501" lon="12.251948">
        <ele>456.455</ele>
        <time>1970-01-01T01:00:00Z</time>
      </trkpt>
      <trkpt lat="61.287582" lon="12.251868">
        <ele>456.545</ele>
        <time>1970-01-01T01:00:00Z</time>
      </trkpt>
      <trkpt lat="61.28766" lon="12.251748">
        <ele>456.545</ele>
        <time>1970-01-01T01:00:00Z</time>
      </trkpt>
      <trkpt lat="61.287742" lon="12.251585">
        <ele>456.545</ele>
        <time>1970-01-01T01:00:00Z</time>
      </trkpt>
      <trkpt lat="61.287799" lon="12.251436">
        <ele>456.545</ele>
        <time>1970-01-01T01:00:00Z</time>
      </trkpt>
      <trkpt lat="61.287887" lon="12.251301">
        <ele>456.273</ele>
        <time>1970-01-01T01:00:00Z</time>
      </trkpt>
      <trkpt lat="61.287973" lon="12.251166">
        <ele>456</ele>
        <time>1970-01-01T01:00:00Z</time>
      </trkpt>
      <trkpt lat="61.288051" lon="12.251056">
        <ele>456.091</ele>
        <time>1970-01-01T01:00:00Z</time>
      </trkpt>
      <trkpt lat="61.288141" lon="12.250942">
        <ele>456.182</ele>
        <time>1970-01-01T01:00:00Z</time>
      </trkpt>
      <trkpt lat="61.288212" lon="12.250823">
        <ele>456.273</ele>
        <time>1970-01-01T01:00:00Z</time>
      </trkpt>
      <trkpt lat="61.288281" lon="12.250672">
        <ele>456.364</ele>
        <time>1970-01-01T01:00:00Z</time>
      </trkpt>
      <trkpt lat="61.288368" lon="12.250564">
        <ele>456.273</ele>
        <time>1970-01-01T01:00:00Z</time>
      </trkpt>
      <trkpt lat="61.288455" lon="12.250457">
        <ele>456.091</ele>
        <time>1970-01-01T01:00:00Z</time>
      </trkpt>
      <trkpt lat="61.288544" lon="12.250332">
        <ele>456.364</ele>
        <time>1970-01-01T01:00:00Z</time>
      </trkpt>
      <trkpt lat="61.288617" lon="12.250216">
        <ele>456.636</ele>
        <time>1970-01-01T01:00:00Z</time>
      </trkpt>
      <trkpt lat="61.288698" lon="12.250084">
        <ele>457.273</ele>
        <time>1970-01-01T01:00:00Z</time>
      </trkpt>
      <trkpt lat="61.288783" lon="12.249984">
        <ele>457.909</ele>
        <time>1970-01-01T01:00:00Z</time>
      </trkpt>
      <trkpt lat="61.288884" lon="12.249896">
        <ele>458.545</ele>
        <time>1970-01-01T01:00:00Z</time>
      </trkpt>
      <trkpt lat="61.288983" lon="12.249802">
        <ele>458.818</ele>
        <time>1970-01-01T01:00:00Z</time>
      </trkpt>
      <trkpt lat="61.289071" lon="12.249721">
        <ele>459.091</ele>
        <time>1970-01-01T01:00:00Z</time>
      </trkpt>
      <trkpt lat="61.289157" lon="12.249641">
        <ele>459.273</ele>
        <time>1970-01-01T01:00:00Z</time>
      </trkpt>
      <trkpt lat="61.289248" lon="12.249591">
        <ele>459.455</ele>
        <time>1970-01-01T01:00:00Z</time>
      </trkpt>
      <trkpt lat="61.289343" lon="12.249523">
        <ele>459.636</ele>
        <time>1970-01-01T01:00:00Z</time>
      </trkpt>
      <trkpt lat="61.289461" lon="12.249423">
        <ele>459.909</ele>
        <time>1970-01-01T01:00:00Z</time>
      </trkpt>
      <trkpt lat="61.289554" lon="12.249301">
        <ele>460.182</ele>
        <time>1970-01-01T01:00:00Z</time>
      </trkpt>
      <trkpt lat="61.289668" lon="12.249263">
        <ele>460.455</ele>
        <time>1970-01-01T01:00:00Z</time>
      </trkpt>
      <trkpt lat="61.289778" lon="12.24919">
        <ele>460.455</ele>
        <time>1970-01-01T01:00:00Z</time>
      </trkpt>
      <trkpt lat="61.289879" lon="12.249112">
        <ele>460.455</ele>
        <time>1970-01-01T01:00:00Z</time>
      </trkpt>
      <trkpt lat="61.289969" lon="12.249051">
        <ele>460.273</ele>
        <time>1970-01-01T01:00:00Z</time>
      </trkpt>
      <trkpt lat="61.290071" lon="12.248944">
        <ele>460.091</ele>
        <time>1970-01-01T01:00:00Z</time>
      </trkpt>
      <trkpt lat="61.290165" lon="12.248865">
        <ele>459.909</ele>
        <time>1970-01-01T01:00:00Z</time>
      </trkpt>
      <trkpt lat="61.290269" lon="12.248794">
        <ele>459.818</ele>
        <time>1970-01-01T01:00:00Z</time>
      </trkpt>
      <trkpt lat="61.290368" lon="12.248784">
        <ele>459.727</ele>
        <time>1970-01-01T01:00:00Z</time>
      </trkpt>
      <trkpt lat="61.290487" lon="12.248722">
        <ele>459.636</ele>
        <time>1970-01-01T01:00:00Z</time>
      </trkpt>
      <trkpt lat="61.290574" lon="12.24866">
        <ele>459.545</ele>
        <time>1970-01-01T01:00:00Z</time>
      </trkpt>
      <trkpt lat="61.29068" lon="12.248589">
        <ele>459.455</ele>
        <time>1970-01-01T01:00:00Z</time>
      </trkpt>
      <trkpt lat="61.290781" lon="12.248489">
        <ele>459.364</ele>
        <time>1970-01-01T01:00:00Z</time>
      </trkpt>
      <trkpt lat="61.290869" lon="12.24839">
        <ele>459.182</ele>
        <time>1970-01-01T01:00:00Z</time>
      </trkpt>
      <trkpt lat="61.290946" lon="12.248292">
        <ele>459</ele>
        <time>1970-01-01T01:00:00Z</time>
      </trkpt>
      <trkpt lat="61.291026" lon="12.248185">
        <ele>459</ele>
        <time>1970-01-01T01:00:00Z</time>
      </trkpt>
      <trkpt lat="61.291113" lon="12.248109">
        <ele>459</ele>
        <time>1970-01-01T01:00:00Z</time>
      </trkpt>
      <trkpt lat="61.291212" lon="12.248045">
        <ele>459</ele>
        <time>1970-01-01T01:00:00Z</time>
      </trkpt>
      <trkpt lat="61.291309" lon="12.247969">
        <ele>459</ele>
        <time>1970-01-01T01:00:00Z</time>
      </trkpt>
      <trkpt lat="61.291412" lon="12.247905">
        <ele>459</ele>
        <time>1970-01-01T01:00:00Z</time>
      </trkpt>
      <trkpt lat="61.29153" lon="12.247848">
        <ele>459</ele>
        <time>1970-01-01T01:00:00Z</time>
      </trkpt>
      <trkpt lat="61.291633" lon="12.247821">
        <ele>458.636</ele>
        <time>1970-01-01T01:00:00Z</time>
      </trkpt>
      <trkpt lat="61.291749" lon="12.247808">
        <ele>458.273</ele>
        <time>1970-01-01T01:00:00Z</time>
      </trkpt>
      <trkpt lat="61.291841" lon="12.247809">
        <ele>457.909</ele>
        <time>1970-01-01T01:00:00Z</time>
      </trkpt>
      <trkpt lat="61.291938" lon="12.247827">
        <ele>457.545</ele>
        <time>1970-01-01T01:00:00Z</time>
      </trkpt>
      <trkpt lat="61.29204" lon="12.247842">
        <ele>457.182</ele>
        <time>1970-01-01T01:00:00Z</time>
      </trkpt>
      <trkpt lat="61.292139" lon="12.247836">
        <ele>456.818</ele>
        <time>1970-01-01T01:00:00Z</time>
      </trkpt>
      <trkpt lat="61.292231" lon="12.247818">
        <ele>456.455</ele>
        <time>1970-01-01T01:00:00Z</time>
      </trkpt>
      <trkpt lat="61.292325" lon="12.24782">
        <ele>456.091</ele>
        <time>1970-01-01T01:00:00Z</time>
      </trkpt>
      <trkpt lat="61.292426" lon="12.247857">
        <ele>455.727</ele>
        <time>1970-01-01T01:00:00Z</time>
      </trkpt>
      <trkpt lat="61.29252" lon="12.247841">
        <ele>455.273</ele>
        <time>1970-01-01T01:00:00Z</time>
      </trkpt>
      <trkpt lat="61.29261" lon="12.247829">
        <ele>454.818</ele>
        <time>1970-01-01T01:00:00Z</time>
      </trkpt>
      <trkpt lat="61.292713" lon="12.247809">
        <ele>454.727</ele>
        <time>1970-01-01T01:00:00Z</time>
      </trkpt>
      <trkpt lat="61.292824" lon="12.247778">
        <ele>454.636</ele>
        <time>1970-01-01T01:00:00Z</time>
      </trkpt>
      <trkpt lat="61.292939" lon="12.247704">
        <ele>454.545</ele>
        <time>1970-01-01T01:00:00Z</time>
      </trkpt>
      <trkpt lat="61.293029" lon="12.247635">
        <ele>454.455</ele>
        <time>1970-01-01T01:00:00Z</time>
      </trkpt>
      <trkpt lat="61.293124" lon="12.247594">
        <ele>454.364</ele>
        <time>1970-01-01T01:00:00Z</time>
      </trkpt>
      <trkpt lat="61.293218" lon="12.247579">
        <ele>454.273</ele>
        <time>1970-01-01T01:00:00Z</time>
      </trkpt>
      <trkpt lat="61.293316" lon="12.247533">
        <ele>454.091</ele>
        <time>1970-01-01T01:00:00Z</time>
      </trkpt>
      <trkpt lat="61.293427" lon="12.247509">
        <ele>453.909</ele>
        <time>1970-01-01T01:00:00Z</time>
      </trkpt>
      <trkpt lat="61.29353" lon="12.247483">
        <ele>453.727</ele>
        <time>1970-01-01T01:00:00Z</time>
      </trkpt>
      <trkpt lat="61.293623" lon="12.247458">
        <ele>453.636</ele>
        <time>1970-01-01T01:00:00Z</time>
      </trkpt>
      <trkpt lat="61.293719" lon="12.247441">
        <ele>453.545</ele>
        <time>1970-01-01T01:00:00Z</time>
      </trkpt>
      <trkpt lat="61.293825" lon="12.247385">
        <ele>453.727</ele>
        <time>1970-01-01T01:00:00Z</time>
      </trkpt>
      <trkpt lat="61.293915" lon="12.24734">
        <ele>453.909</ele>
        <time>1970-01-01T01:00:00Z</time>
      </trkpt>
      <trkpt lat="61.294011" lon="12.247311">
        <ele>454.091</ele>
        <time>1970-01-01T01:00:00Z</time>
      </trkpt>
      <trkpt lat="61.294109" lon="12.247271">
        <ele>454.273</ele>
        <time>1970-01-01T01:00:00Z</time>
      </trkpt>
      <trkpt lat="61.294198" lon="12.247235">
        <ele>454.455</ele>
        <time>1970-01-01T01:00:00Z</time>
      </trkpt>
      <trkpt lat="61.294309" lon="12.247196">
        <ele>454.636</ele>
        <time>1970-01-01T01:00:00Z</time>
      </trkpt>
      <trkpt lat="61.294413" lon="12.247169">
        <ele>454.909</ele>
        <time>1970-01-01T01:00:00Z</time>
      </trkpt>
      <trkpt lat="61.294534" lon="12.247135">
        <ele>455.182</ele>
        <time>1970-01-01T01:00:00Z</time>
      </trkpt>
      <trkpt lat="61.294626" lon="12.247108">
        <ele>455.455</ele>
        <time>1970-01-01T01:00:00Z</time>
      </trkpt>
      <trkpt lat="61.294734" lon="12.247091">
        <ele>455.727</ele>
        <time>1970-01-01T01:00:00Z</time>
      </trkpt>
      <trkpt lat="61.294825" lon="12.247065">
        <ele>456</ele>
        <time>1970-01-01T01:00:00Z</time>
      </trkpt>
      <trkpt lat="61.294923" lon="12.247027">
        <ele>456</ele>
        <time>1970-01-01T01:00:00Z</time>
      </trkpt>
      <trkpt lat="61.295015" lon="12.246994">
        <ele>455.818</ele>
        <time>1970-01-01T01:00:00Z</time>
      </trkpt>
      <trkpt lat="61.295104" lon="12.246965">
        <ele>455.636</ele>
        <time>1970-01-01T01:00:00Z</time>
      </trkpt>
      <trkpt lat="61.295209" lon="12.24694">
        <ele>455.455</ele>
        <time>1970-01-01T01:00:00Z</time>
      </trkpt>
      <trkpt lat="61.295317" lon="12.246936">
        <ele>455.273</ele>
        <time>1970-01-01T01:00:00Z</time>
      </trkpt>
      <trkpt lat="61.29541" lon="12.246915">
        <ele>455.091</ele>
        <time>1970-01-01T01:00:00Z</time>
      </trkpt>
      <trkpt lat="61.29551" lon="12.246846">
        <ele>454.909</ele>
        <time>1970-01-01T01:00:00Z</time>
      </trkpt>
      <trkpt lat="61.295617" lon="12.246806">
        <ele>454.727</ele>
        <time>1970-01-01T01:00:00Z</time>
      </trkpt>
      <trkpt lat="61.295713" lon="12.246708">
        <ele>454.545</ele>
        <time>1970-01-01T01:00:00Z</time>
      </trkpt>
      <trkpt lat="61.295813" lon="12.246651">
        <ele>454.091</ele>
        <time>1970-01-01T01:00:00Z</time>
      </trkpt>
      <trkpt lat="61.295906" lon="12.24663">
        <ele>453.636</ele>
        <time>1970-01-01T01:00:00Z</time>
      </trkpt>
      <trkpt lat="61.296008" lon="12.246594">
        <ele>453.182</ele>
        <time>1970-01-01T01:00:00Z</time>
      </trkpt>
      <trkpt lat="61.296112" lon="12.246547">
        <ele>452.909</ele>
        <time>1970-01-01T01:00:00Z</time>
      </trkpt>
      <trkpt lat="61.296212" lon="12.2465">
        <ele>452.636</ele>
        <time>1970-01-01T01:00:00Z</time>
      </trkpt>
      <trkpt lat="61.296328" lon="12.246471">
        <ele>452.364</ele>
        <time>1970-01-01T01:00:00Z</time>
      </trkpt>
      <trkpt lat="61.296446" lon="12.246444">
        <ele>452.455</ele>
        <time>1970-01-01T01:00:00Z</time>
      </trkpt>
      <trkpt lat="61.296564" lon="12.246444">
        <ele>452.545</ele>
        <time>1970-01-01T01:00:00Z</time>
      </trkpt>
      <trkpt lat="61.296659" lon="12.246443">
        <ele>452.364</ele>
        <time>1970-01-01T01:00:00Z</time>
      </trkpt>
      <trkpt lat="61.296752" lon="12.246428">
        <ele>452.182</ele>
        <time>1970-01-01T01:00:00Z</time>
      </trkpt>
      <trkpt lat="61.296844" lon="12.246403">
        <ele>452</ele>
        <time>1970-01-01T01:00:00Z</time>
      </trkpt>
      <trkpt lat="61.296958" lon="12.246365">
        <ele>452.091</ele>
        <time>1970-01-01T01:00:00Z</time>
      </trkpt>
      <trkpt lat="61.297056" lon="12.246341">
        <ele>452.182</ele>
        <time>1970-01-01T01:00:00Z</time>
      </trkpt>
      <trkpt lat="61.29716" lon="12.24634">
        <ele>452.273</ele>
        <time>1970-01-01T01:00:00Z</time>
      </trkpt>
      <trkpt lat="61.297256" lon="12.246335">
        <ele>452.364</ele>
        <time>1970-01-01T01:00:00Z</time>
      </trkpt>
      <trkpt lat="61.297359" lon="12.246326">
        <ele>452.455</ele>
        <time>1970-01-01T01:00:00Z</time>
      </trkpt>
      <trkpt lat="61.297455" lon="12.24629">
        <ele>452.545</ele>
        <time>1970-01-01T01:00:00Z</time>
      </trkpt>
      <trkpt lat="61.29755" lon="12.246256">
        <ele>452.182</ele>
        <time>1970-01-01T01:00:00Z</time>
      </trkpt>
      <trkpt lat="61.297646" lon="12.246209">
        <ele>451.818</ele>
        <time>1970-01-01T01:00:00Z</time>
      </trkpt>
      <trkpt lat="61.297756" lon="12.246147">
        <ele>451.727</ele>
        <time>1970-01-01T01:00:00Z</time>
      </trkpt>
      <trkpt lat="61.297847" lon="12.246103">
        <ele>451.636</ele>
        <time>1970-01-01T01:00:00Z</time>
      </trkpt>
      <trkpt lat="61.297949" lon="12.246056">
        <ele>451.545</ele>
        <time>1970-01-01T01:00:00Z</time>
      </trkpt>
      <trkpt lat="61.298048" lon="12.246011">
        <ele>451.455</ele>
        <time>1970-01-01T01:00:00Z</time>
      </trkpt>
      <trkpt lat="61.298151" lon="12.245976">
        <ele>451.364</ele>
        <time>1970-01-01T01:00:00Z</time>
      </trkpt>
      <trkpt lat="61.29826" lon="12.245929">
        <ele>451.273</ele>
        <time>1970-01-01T01:00:00Z</time>
      </trkpt>
      <trkpt lat="61.298352" lon="12.245869">
        <ele>451.091</ele>
        <time>1970-01-01T01:00:00Z</time>
      </trkpt>
      <trkpt lat="61.298441" lon="12.245845">
        <ele>450.909</ele>
        <time>1970-01-01T01:00:00Z</time>
      </trkpt>
      <trkpt lat="61.298537" lon="12.245797">
        <ele>450.727</ele>
        <time>1970-01-01T01:00:00Z</time>
      </trkpt>
      <trkpt lat="61.298639" lon="12.24575">
        <ele>450.636</ele>
        <time>1970-01-01T01:00:00Z</time>
      </trkpt>
      <trkpt lat="61.298748" lon="12.245709">
        <ele>450.545</ele>
        <time>1970-01-01T01:00:00Z</time>
      </trkpt>
      <trkpt lat="61.298854" lon="12.245661">
        <ele>450.455</ele>
        <time>1970-01-01T01:00:00Z</time>
      </trkpt>
      <trkpt lat="61.298946" lon="12.245646">
        <ele>450.364</ele>
        <time>1970-01-01T01:00:00Z</time>
      </trkpt>
      <trkpt lat="61.299049" lon="12.245631">
        <ele>450.273</ele>
        <time>1970-01-01T01:00:00Z</time>
      </trkpt>
      <trkpt lat="61.299158" lon="12.245583">
        <ele>450.091</ele>
        <time>1970-01-01T01:00:00Z</time>
      </trkpt>
      <trkpt lat="61.299258" lon="12.245558">
        <ele>449.909</ele>
        <time>1970-01-01T01:00:00Z</time>
      </trkpt>
      <trkpt lat="61.299349" lon="12.245527">
        <ele>449.727</ele>
        <time>1970-01-01T01:00:00Z</time>
      </trkpt>
      <trkpt lat="61.299467" lon="12.245473">
        <ele>449.636</ele>
        <time>1970-01-01T01:00:00Z</time>
      </trkpt>
      <trkpt lat="61.299582" lon="12.245434">
        <ele>449.545</ele>
        <time>1970-01-01T01:00:00Z</time>
      </trkpt>
      <trkpt lat="61.299679" lon="12.245398">
        <ele>449.455</ele>
        <time>1970-01-01T01:00:00Z</time>
      </trkpt>
      <trkpt lat="61.299771" lon="12.245331">
        <ele>449.364</ele>
        <time>1970-01-01T01:00:00Z</time>
      </trkpt>
      <trkpt lat="61.299868" lon="12.245302">
        <ele>449.273</ele>
        <time>1970-01-01T01:00:00Z</time>
      </trkpt>
      <trkpt lat="61.299985" lon="12.245285">
        <ele>448.818</ele>
        <time>1970-01-01T01:00:00Z</time>
      </trkpt>
      <trkpt lat="61.300098" lon="12.245264">
        <ele>448.364</ele>
        <time>1970-01-01T01:00:00Z</time>
      </trkpt>
      <trkpt lat="61.300207" lon="12.24521">
        <ele>447.909</ele>
        <time>1970-01-01T01:00:00Z</time>
      </trkpt>
      <trkpt lat="61.300305" lon="12.245186">
        <ele>447.545</ele>
        <time>1970-01-01T01:00:00Z</time>
      </trkpt>
      <trkpt lat="61.300418" lon="12.24517">
        <ele>447.182</ele>
        <time>1970-01-01T01:00:00Z</time>
      </trkpt>
      <trkpt lat="61.300527" lon="12.245156">
        <ele>446.818</ele>
        <time>1970-01-01T01:00:00Z</time>
      </trkpt>
      <trkpt lat="61.300624" lon="12.245139">
        <ele>446.455</ele>
        <time>1970-01-01T01:00:00Z</time>
      </trkpt>
      <trkpt lat="61.300734" lon="12.245136">
        <ele>446.091</ele>
        <time>1970-01-01T01:00:00Z</time>
      </trkpt>
      <trkpt lat="61.300826" lon="12.245123">
        <ele>445.273</ele>
        <time>1970-01-01T01:00:00Z</time>
      </trkpt>
      <trkpt lat="61.300942" lon="12.245126">
        <ele>444.455</ele>
        <time>1970-01-01T01:00:00Z</time>
      </trkpt>
      <trkpt lat="61.301039" lon="12.245122">
        <ele>443.636</ele>
        <time>1970-01-01T01:00:00Z</time>
      </trkpt>
      <trkpt lat="61.301131" lon="12.245053">
        <ele>443.182</ele>
        <time>1970-01-01T01:00:00Z</time>
      </trkpt>
      <trkpt lat="61.301219" lon="12.244977">
        <ele>442.909</ele>
        <time>1970-01-01T01:00:00Z</time>
      </trkpt>
      <trkpt lat="61.301316" lon="12.244912">
        <ele>442.636</ele>
        <time>1970-01-01T01:00:00Z</time>
      </trkpt>
      <trkpt lat="61.301401" lon="12.244833">
        <ele>442.364</ele>
        <time>1970-01-01T01:00:00Z</time>
      </trkpt>
      <trkpt lat="61.30149" lon="12.244746">
        <ele>442.091</ele>
        <time>1970-01-01T01:00:00Z</time>
      </trkpt>
      <trkpt lat="61.301567" lon="12.244633">
        <ele>441.818</ele>
        <time>1970-01-01T01:00:00Z</time>
      </trkpt>
      <trkpt lat="61.301522" lon="12.244455">
        <ele>441.545</ele>
        <time>1970-01-01T01:00:00Z</time>
      </trkpt>
      <trkpt lat="61.301529" lon="12.244266">
        <ele>441.273</ele>
        <time>1970-01-01T01:00:00Z</time>
      </trkpt>
      <trkpt lat="61.301516" lon="12.244452">
        <ele>441.455</ele>
        <time>1970-01-01T01:00:00Z</time>
      </trkpt>
      <trkpt lat="61.301588" lon="12.244582">
        <ele>441.636</ele>
        <time>1970-01-01T01:00:00Z</time>
      </trkpt>
      <trkpt lat="61.301714" lon="12.244498">
        <ele>441.818</ele>
        <time>1970-01-01T01:00:00Z</time>
      </trkpt>
      <trkpt lat="61.301873" lon="12.244423">
        <ele>442</ele>
        <time>1970-01-01T01:00:00Z</time>
      </trkpt>
      <trkpt lat="61.301976" lon="12.244426">
        <ele>442</ele>
        <time>1970-01-01T01:00:00Z</time>
      </trkpt>
      <trkpt lat="61.30207" lon="12.2444">
        <ele>442</ele>
        <time>1970-01-01T01:00:00Z</time>
      </trkpt>
      <trkpt lat="61.302195" lon="12.24447">
        <ele>442</ele>
        <time>1970-01-01T01:00:00Z</time>
      </trkpt>
      <trkpt lat="61.302285" lon="12.244518">
        <ele>442</ele>
        <time>1970-01-01T01:00:00Z</time>
      </trkpt>
      <trkpt lat="61.302404" lon="12.244546">
        <ele>442</ele>
        <time>1970-01-01T01:00:00Z</time>
      </trkpt>
      <trkpt lat="61.302496" lon="12.244582">
        <ele>442</ele>
        <time>1970-01-01T01:00:00Z</time>
      </trkpt>
      <trkpt lat="61.302517" lon="12.244364">
        <ele>442.455</ele>
        <time>1970-01-01T01:00:00Z</time>
      </trkpt>
      <trkpt lat="61.302546" lon="12.244171">
        <ele>442.909</ele>
        <time>1970-01-01T01:00:00Z</time>
      </trkpt>
      <trkpt lat="61.302612" lon="12.244029">
        <ele>443.364</ele>
        <time>1970-01-01T01:00:00Z</time>
      </trkpt>
      <trkpt lat="61.302708" lon="12.243946">
        <ele>443.818</ele>
        <time>1970-01-01T01:00:00Z</time>
      </trkpt>
      <trkpt lat="61.302805" lon="12.243852">
        <ele>444.273</ele>
        <time>1970-01-01T01:00:00Z</time>
      </trkpt>
      <trkpt lat="61.302908" lon="12.243729">
        <ele>444.727</ele>
        <time>1970-01-01T01:00:00Z</time>
      </trkpt>
      <trkpt lat="61.303001" lon="12.243641">
        <ele>445.182</ele>
        <time>1970-01-01T01:00:00Z</time>
      </trkpt>
      <trkpt lat="61.303099" lon="12.24354">
        <ele>446.091</ele>
        <time>1970-01-01T01:00:00Z</time>
      </trkpt>
      <trkpt lat="61.303185" lon="12.243428">
        <ele>447</ele>
        <time>1970-01-01T01:00:00Z</time>
      </trkpt>
      <trkpt lat="61.303276" lon="12.243349">
        <ele>447.909</ele>
        <time>1970-01-01T01:00:00Z</time>
      </trkpt>
      <trkpt lat="61.30333" lon="12.243197">
        <ele>448.818</ele>
        <time>1970-01-01T01:00:00Z</time>
      </trkpt>
      <trkpt lat="61.303367" lon="12.243018">
        <ele>449.273</ele>
        <time>1970-01-01T01:00:00Z</time>
      </trkpt>
      <trkpt lat="61.303337" lon="12.242828">
        <ele>450.091</ele>
        <time>1970-01-01T01:00:00Z</time>
      </trkpt>
      <trkpt lat="61.303351" lon="12.242636">
        <ele>450.909</ele>
        <time>1970-01-01T01:00:00Z</time>
      </trkpt>
      <trkpt lat="61.303372" lon="12.242442">
        <ele>451.727</ele>
        <time>1970-01-01T01:00:00Z</time>
      </trkpt>
      <trkpt lat="61.303437" lon="12.24229">
        <ele>452.545</ele>
        <time>1970-01-01T01:00:00Z</time>
      </trkpt>
      <trkpt lat="61.303491" lon="12.242135">
        <ele>453.364</ele>
        <time>1970-01-01T01:00:00Z</time>
      </trkpt>
      <trkpt lat="61.303523" lon="12.241942">
        <ele>454.455</ele>
        <time>1970-01-01T01:00:00Z</time>
      </trkpt>
      <trkpt lat="61.30346" lon="12.241808">
        <ele>455.091</ele>
        <time>1970-01-01T01:00:00Z</time>
      </trkpt>
      <trkpt lat="61.303387" lon="12.241681">
        <ele>455.727</ele>
        <time>1970-01-01T01:00:00Z</time>
      </trkpt>
      <trkpt lat="61.303331" lon="12.241513">
        <ele>456.364</ele>
        <time>1970-01-01T01:00:00Z</time>
      </trkpt>
      <trkpt lat="61.303274" lon="12.241351">
        <ele>457.273</ele>
        <time>1970-01-01T01:00:00Z</time>
      </trkpt>
      <trkpt lat="61.30322" lon="12.241196">
        <ele>458.182</ele>
        <time>1970-01-01T01:00:00Z</time>
      </trkpt>
      <trkpt lat="61.303128" lon="12.241119">
        <ele>459</ele>
        <time>1970-01-01T01:00:00Z</time>
      </trkpt>
      <trkpt lat="61.303051" lon="12.240994">
        <ele>459.818</ele>
        <time>1970-01-01T01:00:00Z</time>
      </trkpt>
      <trkpt lat="61.302987" lon="12.240846">
        <ele>460.636</ele>
        <time>1970-01-01T01:00:00Z</time>
      </trkpt>
      <trkpt lat="61.302956" lon="12.240669">
        <ele>461.455</ele>
        <time>1970-01-01T01:00:00Z</time>
      </trkpt>
      <trkpt lat="61.302888" lon="12.240529">
        <ele>461.909</ele>
        <time>1970-01-01T01:00:00Z</time>
      </trkpt>
      <trkpt lat="61.302836" lon="12.24037">
        <ele>462.091</ele>
        <time>1970-01-01T01:00:00Z</time>
      </trkpt>
      <trkpt lat="61.302759" lon="12.240263">
        <ele>462.636</ele>
        <time>1970-01-01T01:00:00Z</time>
      </trkpt>
      <trkpt lat="61.302848" lon="12.2402">
        <ele>463.182</ele>
        <time>1970-01-01T01:00:00Z</time>
      </trkpt>
      <trkpt lat="61.302903" lon="12.240029">
        <ele>463.727</ele>
        <time>1970-01-01T01:00:00Z</time>
      </trkpt>
      <trkpt lat="61.302981" lon="12.239894">
        <ele>464</ele>
        <time>1970-01-01T01:00:00Z</time>
      </trkpt>
      <trkpt lat="61.303043" lon="12.239758">
        <ele>464.273</ele>
        <time>1970-01-01T01:00:00Z</time>
      </trkpt>
      <trkpt lat="61.303118" lon="12.239596">
        <ele>464.909</ele>
        <time>1970-01-01T01:00:00Z</time>
      </trkpt>
      <trkpt lat="61.303193" lon="12.23943">
        <ele>465.545</ele>
        <time>1970-01-01T01:00:00Z</time>
      </trkpt>
      <trkpt lat="61.303254" lon="12.239286">
        <ele>466.182</ele>
        <time>1970-01-01T01:00:00Z</time>
      </trkpt>
      <trkpt lat="61.303332" lon="12.239149">
        <ele>466.818</ele>
        <time>1970-01-01T01:00:00Z</time>
      </trkpt>
      <trkpt lat="61.303383" lon="12.23899">
        <ele>467.818</ele>
        <time>1970-01-01T01:00:00Z</time>
      </trkpt>
      <trkpt lat="61.303426" lon="12.238806">
        <ele>468.818</ele>
        <time>1970-01-01T01:00:00Z</time>
      </trkpt>
      <trkpt lat="61.30346" lon="12.238608">
        <ele>469.455</ele>
        <time>1970-01-01T01:00:00Z</time>
      </trkpt>
      <trkpt lat="61.303491" lon="12.238424">
        <ele>469.727</ele>
        <time>1970-01-01T01:00:00Z</time>
      </trkpt>
      <trkpt lat="61.303534" lon="12.238249">
        <ele>470</ele>
        <time>1970-01-01T01:00:00Z</time>
      </trkpt>
      <trkpt lat="61.30361" lon="12.238125">
        <ele>470.273</ele>
        <time>1970-01-01T01:00:00Z</time>
      </trkpt>
      <trkpt lat="61.3037" lon="12.238033">
        <ele>470.545</ele>
        <time>1970-01-01T01:00:00Z</time>
      </trkpt>
      <trkpt lat="61.303792" lon="12.238091">
        <ele>470.182</ele>
        <time>1970-01-01T01:00:00Z</time>
      </trkpt>
      <trkpt lat="61.303877" lon="12.238165">
        <ele>469.818</ele>
        <time>1970-01-01T01:00:00Z</time>
      </trkpt>
      <trkpt lat="61.303962" lon="12.238235">
        <ele>469.455</ele>
        <time>1970-01-01T01:00:00Z</time>
      </trkpt>
      <trkpt lat="61.304055" lon="12.238321">
        <ele>469.091</ele>
        <time>1970-01-01T01:00:00Z</time>
      </trkpt>
      <trkpt lat="61.304143" lon="12.238353">
        <ele>468.545</ele>
        <time>1970-01-01T01:00:00Z</time>
      </trkpt>
      <trkpt lat="61.304239" lon="12.238371">
        <ele>468</ele>
        <time>1970-01-01T01:00:00Z</time>
      </trkpt>
      <trkpt lat="61.304331" lon="12.238436">
        <ele>467.455</ele>
        <time>1970-01-01T01:00:00Z</time>
      </trkpt>
      <trkpt lat="61.304429" lon="12.238426">
        <ele>467.273</ele>
        <time>1970-01-01T01:00:00Z</time>
      </trkpt>
      <trkpt lat="61.304526" lon="12.238461">
        <ele>467.091</ele>
        <time>1970-01-01T01:00:00Z</time>
      </trkpt>
      <trkpt lat="61.304632" lon="12.238439">
        <ele>467.364</ele>
        <time>1970-01-01T01:00:00Z</time>
      </trkpt>
      <trkpt lat="61.304725" lon="12.238369">
        <ele>467.636</ele>
        <time>1970-01-01T01:00:00Z</time>
      </trkpt>
      <trkpt lat="61.304818" lon="12.238316">
        <ele>467.909</ele>
        <time>1970-01-01T01:00:00Z</time>
      </trkpt>
      <trkpt lat="61.304912" lon="12.238264">
        <ele>468.182</ele>
        <time>1970-01-01T01:00:00Z</time>
      </trkpt>
      <trkpt lat="61.30497" lon="12.238108">
        <ele>468.636</ele>
        <time>1970-01-01T01:00:00Z</time>
      </trkpt>
      <trkpt lat="61.304951" lon="12.237921">
        <ele>469.091</ele>
        <time>1970-01-01T01:00:00Z</time>
      </trkpt>
      <trkpt lat="61.304844" lon="12.237892">
        <ele>469.545</ele>
        <time>1970-01-01T01:00:00Z</time>
      </trkpt>
      <trkpt lat="61.304744" lon="12.237918">
        <ele>470</ele>
        <time>1970-01-01T01:00:00Z</time>
      </trkpt>
      <trkpt lat="61.304657" lon="12.237843">
        <ele>471</ele>
        <time>1970-01-01T01:00:00Z</time>
      </trkpt>
      <trkpt lat="61.304575" lon="12.237727">
        <ele>472</ele>
        <time>1970-01-01T01:00:00Z</time>
      </trkpt>
      <trkpt lat="61.304572" lon="12.237539">
        <ele>473</ele>
        <time>1970-01-01T01:00:00Z</time>
      </trkpt>
      <trkpt lat="61.304664" lon="12.237518">
        <ele>473.545</ele>
        <time>1970-01-01T01:00:00Z</time>
      </trkpt>
      <trkpt lat="61.304709" lon="12.237346">
        <ele>474.091</ele>
        <time>1970-01-01T01:00:00Z</time>
      </trkpt>
      <trkpt lat="61.304758" lon="12.237182">
        <ele>475.182</ele>
        <time>1970-01-01T01:00:00Z</time>
      </trkpt>
      <trkpt lat="61.304828" lon="12.23705">
        <ele>476.273</ele>
        <time>1970-01-01T01:00:00Z</time>
      </trkpt>
      <trkpt lat="61.304785" lon="12.236877">
        <ele>477.182</ele>
        <time>1970-01-01T01:00:00Z</time>
      </trkpt>
      <trkpt lat="61.304775" lon="12.236686">
        <ele>478.091</ele>
        <time>1970-01-01T01:00:00Z</time>
      </trkpt>
      <trkpt lat="61.304777" lon="12.236496">
        <ele>479.182</ele>
        <time>1970-01-01T01:00:00Z</time>
      </trkpt>
      <trkpt lat="61.30483" lon="12.236338">
        <ele>480.273</ele>
        <time>1970-01-01T01:00:00Z</time>
      </trkpt>
      <trkpt lat="61.304827" lon="12.236149">
        <ele>480.818</ele>
        <time>1970-01-01T01:00:00Z</time>
      </trkpt>
      <trkpt lat="61.304859" lon="12.235965">
        <ele>480.818</ele>
        <time>1970-01-01T01:00:00Z</time>
      </trkpt>
      <trkpt lat="61.304955" lon="12.235912">
        <ele>480.818</ele>
        <time>1970-01-01T01:00:00Z</time>
      </trkpt>
      <trkpt lat="61.305051" lon="12.235974">
        <ele>480.818</ele>
        <time>1970-01-01T01:00:00Z</time>
      </trkpt>
      <trkpt lat="61.305093" lon="12.236143">
        <ele>480.818</ele>
        <time>1970-01-01T01:00:00Z</time>
      </trkpt>
      <trkpt lat="61.305146" lon="12.236316">
        <ele>480.182</ele>
        <time>1970-01-01T01:00:00Z</time>
      </trkpt>
      <trkpt lat="61.305172" lon="12.236514">
        <ele>479.545</ele>
        <time>1970-01-01T01:00:00Z</time>
      </trkpt>
      <trkpt lat="61.305235" lon="12.236652">
        <ele>478.909</ele>
        <time>1970-01-01T01:00:00Z</time>
      </trkpt>
      <trkpt lat="61.305336" lon="12.236708">
        <ele>478.273</ele>
        <time>1970-01-01T01:00:00Z</time>
      </trkpt>
      <trkpt lat="61.305403" lon="12.236851">
        <ele>477.636</ele>
        <time>1970-01-01T01:00:00Z</time>
      </trkpt>
      <trkpt lat="61.305508" lon="12.236865">
        <ele>477</ele>
        <time>1970-01-01T01:00:00Z</time>
      </trkpt>
      <trkpt lat="61.30559" lon="12.236981">
        <ele>476.364</ele>
        <time>1970-01-01T01:00:00Z</time>
      </trkpt>
      <trkpt lat="61.30568" lon="12.237043">
        <ele>476.273</ele>
        <time>1970-01-01T01:00:00Z</time>
      </trkpt>
      <trkpt lat="61.305776" lon="12.23705">
        <ele>476.182</ele>
        <time>1970-01-01T01:00:00Z</time>
      </trkpt>
      <trkpt lat="61.305862" lon="12.236944">
        <ele>475.818</ele>
        <time>1970-01-01T01:00:00Z</time>
      </trkpt>
      <trkpt lat="61.305932" lon="12.236803">
        <ele>475.455</ele>
        <time>1970-01-01T01:00:00Z</time>
      </trkpt>
      <trkpt lat="61.306013" lon="12.236703">
        <ele>475.182</ele>
        <time>1970-01-01T01:00:00Z</time>
      </trkpt>
      <trkpt lat="61.306113" lon="12.23668">
        <ele>474.909</ele>
        <time>1970-01-01T01:00:00Z</time>
      </trkpt>
      <trkpt lat="61.306209" lon="12.23675">
        <ele>474.182</ele>
        <time>1970-01-01T01:00:00Z</time>
      </trkpt>
      <trkpt lat="61.306291" lon="12.236826">
        <ele>473.455</ele>
        <time>1970-01-01T01:00:00Z</time>
      </trkpt>
      <trkpt lat="61.306375" lon="12.2369">
        <ele>472.727</ele>
        <time>1970-01-01T01:00:00Z</time>
      </trkpt>
      <trkpt lat="61.306461" lon="12.236964">
        <ele>472</ele>
        <time>1970-01-01T01:00:00Z</time>
      </trkpt>
      <trkpt lat="61.306535" lon="12.237081">
        <ele>471.273</ele>
        <time>1970-01-01T01:00:00Z</time>
      </trkpt>
      <trkpt lat="61.306605" lon="12.237219">
        <ele>470.545</ele>
        <time>1970-01-01T01:00:00Z</time>
      </trkpt>
      <trkpt lat="61.306696" lon="12.237263">
        <ele>469.636</ele>
        <time>1970-01-01T01:00:00Z</time>
      </trkpt>
      <trkpt lat="61.306787" lon="12.237274">
        <ele>469</ele>
        <time>1970-01-01T01:00:00Z</time>
      </trkpt>
      <trkpt lat="61.306886" lon="12.237267">
        <ele>468.818</ele>
        <time>1970-01-01T01:00:00Z</time>
      </trkpt>
      <trkpt lat="61.306972" lon="12.23733">
        <ele>468.636</ele>
        <time>1970-01-01T01:00:00Z</time>
      </trkpt>
      <trkpt lat="61.307051" lon="12.237229">
        <ele>468.455</ele>
        <time>1970-01-01T01:00:00Z</time>
      </trkpt>
      <trkpt lat="61.307123" lon="12.237349">
        <ele>468.5</ele>
        <time>1970-01-01T01:00:00Z</time>
      </trkpt>
      <trkpt lat="61.307209" lon="12.237246">
        <ele>468.556</ele>
        <time>1970-01-01T01:00:00Z</time>
      </trkpt>
      <trkpt lat="61.307292" lon="12.237166">
        <ele>468.625</ele>
        <time>1970-01-01T01:00:00Z</time>
      </trkpt>
      <trkpt lat="61.3072" lon="12.237126">
        <ele>468.714</ele>
        <time>1970-01-01T01:00:00Z</time>
      </trkpt>
      <trkpt lat="61.307191" lon="12.237123">
        <ele>468.833</ele>
        <time>1970-01-01T01:00:00Z</time>
      </trkpt>
    </trkseg>
  </trk>
</gpx>